<?xml version="1.0" encoding="UTF-8" standalone="no" ?>
<gpx xmlns="http://www.topografix.com/GPX/1/1" xmlns:xsi="http://www.w3.org/2001/XMLSchema-instance" xsi:schemaLocation="http://www.topografix.com/GPX/1/1 http://www.topografix.com/GPX/1/1/gpx.xsd" version="1.1" creator="VisuGPX - https://www.visugpx.com">
  <metadata>
    <name>Rando autour d\'Audrieu</name>
    <desc><![CDATA[petite randonnée du Dimanche 16/11/2014 entre amis, temps variable]]></desc>
  </metadata>
  <trk>
    <name><![CDATA[Tracé actuel: 09 NOV 2014 17:11]]></name>
    <trkseg>
      <trkpt lat="49.03872" lon="-0.42181">
        <ele>117.9</ele>
        <time>2014-11-09T16:11:43Z</time>
      </trkpt>
      <trkpt lat="49.03872" lon="-0.4218">
        <ele>115.98</ele>
        <time>2014-11-09T16:12:00Z</time>
      </trkpt>
      <trkpt lat="49.03871" lon="-0.4218">
        <ele>119.34</ele>
        <time>2014-11-09T16:12:01Z</time>
      </trkpt>
      <trkpt lat="49.0387" lon="-0.42178">
        <ele>117.9</ele>
        <time>2014-11-09T16:12:24Z</time>
      </trkpt>
      <trkpt lat="49.0387" lon="-0.42178">
        <ele>116.94</ele>
        <time>2014-11-09T16:12:32Z</time>
      </trkpt>
      <trkpt lat="49.03868" lon="-0.42216">
        <ele>115.98</ele>
        <time>2014-11-09T16:44:24Z</time>
      </trkpt>
      <trkpt lat="49.03866" lon="-0.42217">
        <ele>115.98</ele>
        <time>2014-11-09T16:44:25Z</time>
      </trkpt>
      <trkpt lat="49.03858" lon="-0.42215">
        <ele>115.98</ele>
        <time>2014-11-09T16:44:47Z</time>
      </trkpt>
      <trkpt lat="49.03861" lon="-0.42205">
        <ele>117.42</ele>
        <time>2014-11-09T16:44:59Z</time>
      </trkpt>
      <trkpt lat="49.03856" lon="-0.42205">
        <ele>121.26</ele>
        <time>2014-11-09T16:45:05Z</time>
      </trkpt>
      <trkpt lat="49.03856" lon="-0.42208">
        <ele>122.71</ele>
        <time>2014-11-09T16:45:09Z</time>
      </trkpt>
      <trkpt lat="49.03859" lon="-0.42211">
        <ele>125.11</ele>
        <time>2014-11-09T16:45:14Z</time>
      </trkpt>
      <trkpt lat="49.03861" lon="-0.42215">
        <ele>128.47</ele>
        <time>2014-11-09T16:45:24Z</time>
      </trkpt>
      <trkpt lat="49.03864" lon="-0.42215">
        <ele>131.84</ele>
        <time>2014-11-09T16:45:35Z</time>
      </trkpt>
      <trkpt lat="49.03867" lon="-0.42213">
        <ele>135.2</ele>
        <time>2014-11-09T16:45:43Z</time>
      </trkpt>
      <trkpt lat="49.03874" lon="-0.42214">
        <ele>138.57</ele>
        <time>2014-11-09T16:46:00Z</time>
      </trkpt>
      <trkpt lat="49.03876" lon="-0.42209">
        <ele>141.93</ele>
        <time>2014-11-09T16:46:17Z</time>
      </trkpt>
      <trkpt lat="49.03876" lon="-0.42208">
        <ele>141.93</ele>
        <time>2014-11-09T16:46:41Z</time>
      </trkpt>
      <trkpt lat="49.03872" lon="-0.42208">
        <ele>141.45</ele>
        <time>2014-11-09T16:47:02Z</time>
      </trkpt>
      <trkpt lat="49.03863" lon="-0.42205">
        <ele>141.93</ele>
        <time>2014-11-09T16:47:23Z</time>
      </trkpt>
      <trkpt lat="49.03864" lon="-0.42204">
        <ele>141.93</ele>
        <time>2014-11-09T16:47:36Z</time>
      </trkpt>
      <trkpt lat="49.03863" lon="-0.42204">
        <ele>141.45</ele>
        <time>2014-11-09T16:47:55Z</time>
      </trkpt>
      <trkpt lat="49.03863" lon="-0.42202">
        <ele>141.45</ele>
        <time>2014-11-09T16:48:14Z</time>
      </trkpt>
      <trkpt lat="49.03863" lon="-0.422">
        <ele>141.45</ele>
        <time>2014-11-09T16:48:29Z</time>
      </trkpt>
      <trkpt lat="49.03862" lon="-0.42199">
        <ele>141.45</ele>
        <time>2014-11-09T16:48:48Z</time>
      </trkpt>
      <trkpt lat="49.03862" lon="-0.42199">
        <ele>141.45</ele>
        <time>2014-11-09T16:49:05Z</time>
      </trkpt>
      <trkpt lat="49.03862" lon="-0.422">
        <ele>140.49</ele>
        <time>2014-11-09T16:49:15Z</time>
      </trkpt>
      <trkpt lat="49.03862" lon="-0.42199">
        <ele>140.97</ele>
        <time>2014-11-09T16:49:44Z</time>
      </trkpt>
      <trkpt lat="49.03862" lon="-0.42198">
        <ele>140.97</ele>
        <time>2014-11-09T16:50:12Z</time>
      </trkpt>
      <trkpt lat="49.03862" lon="-0.42198">
        <ele>140.97</ele>
        <time>2014-11-09T16:50:45Z</time>
      </trkpt>
      <trkpt lat="49.03862" lon="-0.42199">
        <ele>140.97</ele>
        <time>2014-11-09T16:51:13Z</time>
      </trkpt>
      <trkpt lat="49.03862" lon="-0.42198">
        <ele>140.97</ele>
        <time>2014-11-09T16:51:36Z</time>
      </trkpt>
      <trkpt lat="49.03862" lon="-0.42197">
        <ele>140.49</ele>
        <time>2014-11-09T16:52:08Z</time>
      </trkpt>
      <trkpt lat="49.03863" lon="-0.42193">
        <ele>141.45</ele>
        <time>2014-11-09T16:52:29Z</time>
      </trkpt>
    </trkseg>
  </trk>
  <trk>
    <name><![CDATA[Tracé actuel: 16 NOV 2014 13:00]]></name>
    <trkseg>
      <trkpt lat="49.20699" lon="-0.595">
        <ele>172.69</ele>
        <time>2014-11-16T12:00:28Z</time>
      </trkpt>
      <trkpt lat="49.20699" lon="-0.595">
        <ele>172.69</ele>
        <time>2014-11-16T12:00:29Z</time>
      </trkpt>
      <trkpt lat="49.20698" lon="-0.59497">
        <ele>172.69</ele>
        <time>2014-11-16T12:00:34Z</time>
      </trkpt>
      <trkpt lat="49.20697" lon="-0.59501">
        <ele>169.81</ele>
        <time>2014-11-16T12:00:46Z</time>
      </trkpt>
      <trkpt lat="49.20696" lon="-0.59502">
        <ele>165.96</ele>
        <time>2014-11-16T12:00:47Z</time>
      </trkpt>
      <trkpt lat="49.20696" lon="-0.59502">
        <ele>160.2</ele>
        <time>2014-11-16T12:00:49Z</time>
      </trkpt>
      <trkpt lat="49.20696" lon="-0.59502">
        <ele>157.31</ele>
        <time>2014-11-16T12:00:50Z</time>
      </trkpt>
      <trkpt lat="49.20696" lon="-0.59502">
        <ele>152.99</ele>
        <time>2014-11-16T12:00:51Z</time>
      </trkpt>
      <trkpt lat="49.20695" lon="-0.59502">
        <ele>149.14</ele>
        <time>2014-11-16T12:00:53Z</time>
      </trkpt>
      <trkpt lat="49.20695" lon="-0.59501">
        <ele>143.85</ele>
        <time>2014-11-16T12:00:55Z</time>
      </trkpt>
      <trkpt lat="49.20695" lon="-0.595">
        <ele>139.05</ele>
        <time>2014-11-16T12:00:57Z</time>
      </trkpt>
      <trkpt lat="49.20695" lon="-0.59499">
        <ele>134.72</ele>
        <time>2014-11-16T12:00:59Z</time>
      </trkpt>
      <trkpt lat="49.20695" lon="-0.59501">
        <ele>129.92</ele>
        <time>2014-11-16T12:01:01Z</time>
      </trkpt>
      <trkpt lat="49.20696" lon="-0.59502">
        <ele>129.92</ele>
        <time>2014-11-16T12:01:02Z</time>
      </trkpt>
      <trkpt lat="49.20696" lon="-0.59502">
        <ele>126.07</ele>
        <time>2014-11-16T12:01:03Z</time>
      </trkpt>
      <trkpt lat="49.20696" lon="-0.59503">
        <ele>122.71</ele>
        <time>2014-11-16T12:01:05Z</time>
      </trkpt>
      <trkpt lat="49.20696" lon="-0.59503">
        <ele>123.19</ele>
        <time>2014-11-16T12:01:06Z</time>
      </trkpt>
      <trkpt lat="49.20698" lon="-0.59503">
        <ele>119.34</ele>
        <time>2014-11-16T12:01:09Z</time>
      </trkpt>
      <trkpt lat="49.207" lon="-0.59501">
        <ele>115.01</ele>
        <time>2014-11-16T12:01:12Z</time>
      </trkpt>
      <trkpt lat="49.20701" lon="-0.59501">
        <ele>110.69</ele>
        <time>2014-11-16T12:01:15Z</time>
      </trkpt>
      <trkpt lat="49.20702" lon="-0.59502">
        <ele>106.84</ele>
        <time>2014-11-16T12:01:18Z</time>
      </trkpt>
      <trkpt lat="49.20704" lon="-0.59504">
        <ele>105.4</ele>
        <time>2014-11-16T12:01:21Z</time>
      </trkpt>
      <trkpt lat="49.20703" lon="-0.59506">
        <ele>105.4</ele>
        <time>2014-11-16T12:01:22Z</time>
      </trkpt>
      <trkpt lat="49.20685" lon="-0.59525">
        <ele>102.52</ele>
        <time>2014-11-16T12:01:29Z</time>
      </trkpt>
      <trkpt lat="49.20686" lon="-0.59517">
        <ele>99.15</ele>
        <time>2014-11-16T12:01:33Z</time>
      </trkpt>
      <trkpt lat="49.20688" lon="-0.59517">
        <ele>95.79</ele>
        <time>2014-11-16T12:01:38Z</time>
      </trkpt>
      <trkpt lat="49.20686" lon="-0.59526">
        <ele>92.9</ele>
        <time>2014-11-16T12:01:45Z</time>
      </trkpt>
      <trkpt lat="49.20687" lon="-0.59538">
        <ele>89.54</ele>
        <time>2014-11-16T12:01:54Z</time>
      </trkpt>
      <trkpt lat="49.20692" lon="-0.59524">
        <ele>86.18</ele>
        <time>2014-11-16T12:02:06Z</time>
      </trkpt>
      <trkpt lat="49.20692" lon="-0.59522">
        <ele>83.29</ele>
        <time>2014-11-16T12:02:13Z</time>
      </trkpt>
      <trkpt lat="49.20692" lon="-0.59521">
        <ele>80.41</ele>
        <time>2014-11-16T12:02:21Z</time>
      </trkpt>
      <trkpt lat="49.20687" lon="-0.59513">
        <ele>78</ele>
        <time>2014-11-16T12:02:35Z</time>
      </trkpt>
      <trkpt lat="49.20686" lon="-0.59513">
        <ele>76.08</ele>
        <time>2014-11-16T12:02:55Z</time>
      </trkpt>
      <trkpt lat="49.20685" lon="-0.59512">
        <ele>76.08</ele>
        <time>2014-11-16T12:03:13Z</time>
      </trkpt>
    </trkseg>
  </trk>
  <trk>
    <name><![CDATA[Tracé actuel: 16 NOV 2014 13:03]]></name>
    <trkseg>
      <trkpt lat="49.20685" lon="-0.59512">
        <ele>76.08</ele>
        <time>2014-11-16T12:03:20Z</time>
      </trkpt>
      <trkpt lat="49.20685" lon="-0.5951">
        <ele>76.08</ele>
        <time>2014-11-16T12:03:42Z</time>
      </trkpt>
      <trkpt lat="49.20686" lon="-0.59511">
        <ele>76.08</ele>
        <time>2014-11-16T12:04:03Z</time>
      </trkpt>
      <trkpt lat="49.20684" lon="-0.5951">
        <ele>75.6</ele>
        <time>2014-11-16T12:04:19Z</time>
      </trkpt>
      <trkpt lat="49.20682" lon="-0.59511">
        <ele>76.08</ele>
        <time>2014-11-16T12:04:32Z</time>
      </trkpt>
      <trkpt lat="49.20682" lon="-0.59511">
        <ele>76.08</ele>
        <time>2014-11-16T12:04:54Z</time>
      </trkpt>
      <trkpt lat="49.20677" lon="-0.59515">
        <ele>76.08</ele>
        <time>2014-11-16T12:05:06Z</time>
      </trkpt>
      <trkpt lat="49.20672" lon="-0.59524">
        <ele>76.08</ele>
        <time>2014-11-16T12:05:18Z</time>
      </trkpt>
      <trkpt lat="49.20674" lon="-0.59523">
        <ele>76.08</ele>
        <time>2014-11-16T12:05:21Z</time>
      </trkpt>
      <trkpt lat="49.20676" lon="-0.59525">
        <ele>76.08</ele>
        <time>2014-11-16T12:05:23Z</time>
      </trkpt>
      <trkpt lat="49.20689" lon="-0.59531">
        <ele>76.56</ele>
        <time>2014-11-16T12:05:37Z</time>
      </trkpt>
      <trkpt lat="49.20699" lon="-0.59535">
        <ele>77.04</ele>
        <time>2014-11-16T12:05:50Z</time>
      </trkpt>
      <trkpt lat="49.20704" lon="-0.59543">
        <ele>77.04</ele>
        <time>2014-11-16T12:05:57Z</time>
      </trkpt>
      <trkpt lat="49.20706" lon="-0.59553">
        <ele>77.52</ele>
        <time>2014-11-16T12:06:05Z</time>
      </trkpt>
      <trkpt lat="49.20707" lon="-0.59559">
        <ele>77.52</ele>
        <time>2014-11-16T12:06:08Z</time>
      </trkpt>
      <trkpt lat="49.20703" lon="-0.5959">
        <ele>78</ele>
        <time>2014-11-16T12:06:24Z</time>
      </trkpt>
      <trkpt lat="49.20703" lon="-0.59599">
        <ele>78</ele>
        <time>2014-11-16T12:06:30Z</time>
      </trkpt>
      <trkpt lat="49.20703" lon="-0.59606">
        <ele>78</ele>
        <time>2014-11-16T12:06:35Z</time>
      </trkpt>
      <trkpt lat="49.20687" lon="-0.59616">
        <ele>78.48</ele>
        <time>2014-11-16T12:06:50Z</time>
      </trkpt>
      <trkpt lat="49.20686" lon="-0.59617">
        <ele>78.97</ele>
        <time>2014-11-16T12:06:51Z</time>
      </trkpt>
      <trkpt lat="49.20683" lon="-0.5963">
        <ele>78.97</ele>
        <time>2014-11-16T12:06:57Z</time>
      </trkpt>
      <trkpt lat="49.20685" lon="-0.59663">
        <ele>79.45</ele>
        <time>2014-11-16T12:07:13Z</time>
      </trkpt>
      <trkpt lat="49.2069" lon="-0.59692">
        <ele>80.89</ele>
        <time>2014-11-16T12:07:28Z</time>
      </trkpt>
      <trkpt lat="49.2069" lon="-0.59699">
        <ele>80.41</ele>
        <time>2014-11-16T12:07:32Z</time>
      </trkpt>
      <trkpt lat="49.20689" lon="-0.59702">
        <ele>80.89</ele>
        <time>2014-11-16T12:07:34Z</time>
      </trkpt>
      <trkpt lat="49.20685" lon="-0.59704">
        <ele>80.89</ele>
        <time>2014-11-16T12:07:38Z</time>
      </trkpt>
      <trkpt lat="49.20673" lon="-0.59728">
        <ele>81.37</ele>
        <time>2014-11-16T12:07:54Z</time>
      </trkpt>
      <trkpt lat="49.20673" lon="-0.59735">
        <ele>81.37</ele>
        <time>2014-11-16T12:07:57Z</time>
      </trkpt>
      <trkpt lat="49.20674" lon="-0.59747">
        <ele>81.85</ele>
        <time>2014-11-16T12:08:03Z</time>
      </trkpt>
      <trkpt lat="49.20677" lon="-0.59781">
        <ele>81.85</ele>
        <time>2014-11-16T12:08:19Z</time>
      </trkpt>
      <trkpt lat="49.20682" lon="-0.59807">
        <ele>83.29</ele>
        <time>2014-11-16T12:08:31Z</time>
      </trkpt>
      <trkpt lat="49.20684" lon="-0.59816">
        <ele>83.29</ele>
        <time>2014-11-16T12:08:35Z</time>
      </trkpt>
      <trkpt lat="49.20686" lon="-0.59828">
        <ele>83.77</ele>
        <time>2014-11-16T12:08:41Z</time>
      </trkpt>
      <trkpt lat="49.20688" lon="-0.5985">
        <ele>84.25</ele>
        <time>2014-11-16T12:08:55Z</time>
      </trkpt>
      <trkpt lat="49.20688" lon="-0.59853">
        <ele>83.77</ele>
        <time>2014-11-16T12:09:11Z</time>
      </trkpt>
      <trkpt lat="49.20688" lon="-0.59855">
        <ele>83.77</ele>
        <time>2014-11-16T12:09:13Z</time>
      </trkpt>
      <trkpt lat="49.20687" lon="-0.59859">
        <ele>84.25</ele>
        <time>2014-11-16T12:09:15Z</time>
      </trkpt>
      <trkpt lat="49.20689" lon="-0.5988">
        <ele>84.25</ele>
        <time>2014-11-16T12:09:24Z</time>
      </trkpt>
      <trkpt lat="49.2069" lon="-0.59907">
        <ele>83.77</ele>
        <time>2014-11-16T12:09:37Z</time>
      </trkpt>
      <trkpt lat="49.20689" lon="-0.59911">
        <ele>84.25</ele>
        <time>2014-11-16T12:09:39Z</time>
      </trkpt>
      <trkpt lat="49.2069" lon="-0.59939">
        <ele>84.25</ele>
        <time>2014-11-16T12:09:52Z</time>
      </trkpt>
      <trkpt lat="49.20691" lon="-0.5995">
        <ele>83.77</ele>
        <time>2014-11-16T12:09:57Z</time>
      </trkpt>
      <trkpt lat="49.20692" lon="-0.5997">
        <ele>83.77</ele>
        <time>2014-11-16T12:10:06Z</time>
      </trkpt>
      <trkpt lat="49.20697" lon="-0.59983">
        <ele>83.77</ele>
        <time>2014-11-16T12:10:12Z</time>
      </trkpt>
      <trkpt lat="49.20708" lon="-0.60005">
        <ele>83.29</ele>
        <time>2014-11-16T12:10:24Z</time>
      </trkpt>
      <trkpt lat="49.20708" lon="-0.60006">
        <ele>83.77</ele>
        <time>2014-11-16T12:10:26Z</time>
      </trkpt>
      <trkpt lat="49.20718" lon="-0.60017">
        <ele>83.29</ele>
        <time>2014-11-16T12:10:37Z</time>
      </trkpt>
      <trkpt lat="49.20696" lon="-0.60018">
        <ele>83.29</ele>
        <time>2014-11-16T12:10:56Z</time>
      </trkpt>
      <trkpt lat="49.20688" lon="-0.60016">
        <ele>83.77</ele>
        <time>2014-11-16T12:11:06Z</time>
      </trkpt>
      <trkpt lat="49.20665" lon="-0.60023">
        <ele>84.25</ele>
        <time>2014-11-16T12:11:24Z</time>
      </trkpt>
      <trkpt lat="49.2064" lon="-0.60036">
        <ele>84.73</ele>
        <time>2014-11-16T12:11:40Z</time>
      </trkpt>
      <trkpt lat="49.20634" lon="-0.6004">
        <ele>84.73</ele>
        <time>2014-11-16T12:11:46Z</time>
      </trkpt>
      <trkpt lat="49.20629" lon="-0.60043">
        <ele>85.21</ele>
        <time>2014-11-16T12:11:50Z</time>
      </trkpt>
      <trkpt lat="49.20597" lon="-0.60055">
        <ele>85.69</ele>
        <time>2014-11-16T12:12:10Z</time>
      </trkpt>
      <trkpt lat="49.20578" lon="-0.60062">
        <ele>86.18</ele>
        <time>2014-11-16T12:12:26Z</time>
      </trkpt>
      <trkpt lat="49.20571" lon="-0.60063">
        <ele>86.18</ele>
        <time>2014-11-16T12:12:31Z</time>
      </trkpt>
      <trkpt lat="49.2055" lon="-0.60067">
        <ele>86.66</ele>
        <time>2014-11-16T12:12:48Z</time>
      </trkpt>
      <trkpt lat="49.20521" lon="-0.60072">
        <ele>87.14</ele>
        <time>2014-11-16T12:13:06Z</time>
      </trkpt>
      <trkpt lat="49.20494" lon="-0.60074">
        <ele>88.1</ele>
        <time>2014-11-16T12:13:24Z</time>
      </trkpt>
      <trkpt lat="49.20471" lon="-0.60079">
        <ele>88.58</ele>
        <time>2014-11-16T12:13:41Z</time>
      </trkpt>
      <trkpt lat="49.20441" lon="-0.60084">
        <ele>89.06</ele>
        <time>2014-11-16T12:14:01Z</time>
      </trkpt>
      <trkpt lat="49.20426" lon="-0.60086">
        <ele>89.54</ele>
        <time>2014-11-16T12:14:14Z</time>
      </trkpt>
      <trkpt lat="49.20413" lon="-0.60091">
        <ele>89.54</ele>
        <time>2014-11-16T12:14:24Z</time>
      </trkpt>
      <trkpt lat="49.2039" lon="-0.60092">
        <ele>90.02</ele>
        <time>2014-11-16T12:14:40Z</time>
      </trkpt>
      <trkpt lat="49.20372" lon="-0.60101">
        <ele>90.98</ele>
        <time>2014-11-16T12:14:53Z</time>
      </trkpt>
      <trkpt lat="49.20351" lon="-0.60109">
        <ele>90.5</ele>
        <time>2014-11-16T12:15:05Z</time>
      </trkpt>
      <trkpt lat="49.2033" lon="-0.60116">
        <ele>90.98</ele>
        <time>2014-11-16T12:15:21Z</time>
      </trkpt>
      <trkpt lat="49.20312" lon="-0.60123">
        <ele>90.98</ele>
        <time>2014-11-16T12:15:37Z</time>
      </trkpt>
      <trkpt lat="49.20291" lon="-0.60131">
        <ele>91.46</ele>
        <time>2014-11-16T12:15:53Z</time>
      </trkpt>
      <trkpt lat="49.20271" lon="-0.60142">
        <ele>91.46</ele>
        <time>2014-11-16T12:16:08Z</time>
      </trkpt>
      <trkpt lat="49.20246" lon="-0.60151">
        <ele>91.94</ele>
        <time>2014-11-16T12:16:23Z</time>
      </trkpt>
      <trkpt lat="49.20229" lon="-0.60156">
        <ele>91.94</ele>
        <time>2014-11-16T12:16:36Z</time>
      </trkpt>
      <trkpt lat="49.20226" lon="-0.60156">
        <ele>91.94</ele>
        <time>2014-11-16T12:16:38Z</time>
      </trkpt>
      <trkpt lat="49.202" lon="-0.60158">
        <ele>92.9</ele>
        <time>2014-11-16T12:16:54Z</time>
      </trkpt>
      <trkpt lat="49.20179" lon="-0.60153">
        <ele>91.94</ele>
        <time>2014-11-16T12:17:10Z</time>
      </trkpt>
      <trkpt lat="49.20175" lon="-0.60148">
        <ele>91.94</ele>
        <time>2014-11-16T12:17:14Z</time>
      </trkpt>
      <trkpt lat="49.20166" lon="-0.60128">
        <ele>92.42</ele>
        <time>2014-11-16T12:17:32Z</time>
      </trkpt>
      <trkpt lat="49.20167" lon="-0.60137">
        <ele>92.42</ele>
        <time>2014-11-16T12:17:51Z</time>
      </trkpt>
      <trkpt lat="49.20167" lon="-0.60144">
        <ele>91.94</ele>
        <time>2014-11-16T12:17:56Z</time>
      </trkpt>
      <trkpt lat="49.20169" lon="-0.60175">
        <ele>90.98</ele>
        <time>2014-11-16T12:18:10Z</time>
      </trkpt>
      <trkpt lat="49.2017" lon="-0.60191">
        <ele>90.98</ele>
        <time>2014-11-16T12:18:17Z</time>
      </trkpt>
      <trkpt lat="49.2017" lon="-0.602">
        <ele>90.5</ele>
        <time>2014-11-16T12:18:21Z</time>
      </trkpt>
      <trkpt lat="49.2017" lon="-0.60206">
        <ele>90.5</ele>
        <time>2014-11-16T12:18:24Z</time>
      </trkpt>
      <trkpt lat="49.20175" lon="-0.60235">
        <ele>90.02</ele>
        <time>2014-11-16T12:18:39Z</time>
      </trkpt>
      <trkpt lat="49.20177" lon="-0.6027">
        <ele>89.06</ele>
        <time>2014-11-16T12:18:56Z</time>
      </trkpt>
      <trkpt lat="49.20179" lon="-0.60305">
        <ele>88.58</ele>
        <time>2014-11-16T12:19:12Z</time>
      </trkpt>
      <trkpt lat="49.2018" lon="-0.60344">
        <ele>87.62</ele>
        <time>2014-11-16T12:19:32Z</time>
      </trkpt>
      <trkpt lat="49.20183" lon="-0.60369">
        <ele>87.14</ele>
        <time>2014-11-16T12:19:45Z</time>
      </trkpt>
      <trkpt lat="49.20184" lon="-0.60378">
        <ele>86.66</ele>
        <time>2014-11-16T12:19:49Z</time>
      </trkpt>
      <trkpt lat="49.20187" lon="-0.60415">
        <ele>85.69</ele>
        <time>2014-11-16T12:20:07Z</time>
      </trkpt>
      <trkpt lat="49.20188" lon="-0.60445">
        <ele>85.21</ele>
        <time>2014-11-16T12:20:25Z</time>
      </trkpt>
      <trkpt lat="49.2019" lon="-0.60479">
        <ele>84.73</ele>
        <time>2014-11-16T12:20:40Z</time>
      </trkpt>
      <trkpt lat="49.20194" lon="-0.60526">
        <ele>83.77</ele>
        <time>2014-11-16T12:21:00Z</time>
      </trkpt>
      <trkpt lat="49.20197" lon="-0.6056">
        <ele>83.29</ele>
        <time>2014-11-16T12:21:17Z</time>
      </trkpt>
      <trkpt lat="49.20203" lon="-0.60602">
        <ele>82.81</ele>
        <time>2014-11-16T12:21:39Z</time>
      </trkpt>
      <trkpt lat="49.20211" lon="-0.60639">
        <ele>82.33</ele>
        <time>2014-11-16T12:21:57Z</time>
      </trkpt>
      <trkpt lat="49.20221" lon="-0.60676">
        <ele>82.33</ele>
        <time>2014-11-16T12:22:19Z</time>
      </trkpt>
      <trkpt lat="49.20228" lon="-0.60704">
        <ele>81.85</ele>
        <time>2014-11-16T12:22:36Z</time>
      </trkpt>
      <trkpt lat="49.20235" lon="-0.60733">
        <ele>81.85</ele>
        <time>2014-11-16T12:22:51Z</time>
      </trkpt>
      <trkpt lat="49.20241" lon="-0.60767">
        <ele>81.37</ele>
        <time>2014-11-16T12:23:08Z</time>
      </trkpt>
      <trkpt lat="49.20244" lon="-0.60783">
        <ele>81.37</ele>
        <time>2014-11-16T12:23:16Z</time>
      </trkpt>
      <trkpt lat="49.20248" lon="-0.60804">
        <ele>80.89</ele>
        <time>2014-11-16T12:23:26Z</time>
      </trkpt>
      <trkpt lat="49.20254" lon="-0.60846">
        <ele>80.89</ele>
        <time>2014-11-16T12:23:46Z</time>
      </trkpt>
      <trkpt lat="49.2026" lon="-0.6088">
        <ele>80.41</ele>
        <time>2014-11-16T12:24:03Z</time>
      </trkpt>
      <trkpt lat="49.20263" lon="-0.60905">
        <ele>80.41</ele>
        <time>2014-11-16T12:24:16Z</time>
      </trkpt>
      <trkpt lat="49.20265" lon="-0.60932">
        <ele>79.93</ele>
        <time>2014-11-16T12:24:30Z</time>
      </trkpt>
      <trkpt lat="49.20268" lon="-0.60946">
        <ele>79.93</ele>
        <time>2014-11-16T12:24:39Z</time>
      </trkpt>
      <trkpt lat="49.20271" lon="-0.60971">
        <ele>79.45</ele>
        <time>2014-11-16T12:24:51Z</time>
      </trkpt>
      <trkpt lat="49.20276" lon="-0.61">
        <ele>78.97</ele>
        <time>2014-11-16T12:25:06Z</time>
      </trkpt>
      <trkpt lat="49.20278" lon="-0.61011">
        <ele>78.97</ele>
        <time>2014-11-16T12:25:12Z</time>
      </trkpt>
      <trkpt lat="49.20282" lon="-0.61043">
        <ele>78.48</ele>
        <time>2014-11-16T12:25:28Z</time>
      </trkpt>
      <trkpt lat="49.20286" lon="-0.61076">
        <ele>78</ele>
        <time>2014-11-16T12:25:44Z</time>
      </trkpt>
      <trkpt lat="49.2029" lon="-0.61108">
        <ele>77.52</ele>
        <time>2014-11-16T12:25:59Z</time>
      </trkpt>
      <trkpt lat="49.20294" lon="-0.6114">
        <ele>77.04</ele>
        <time>2014-11-16T12:26:15Z</time>
      </trkpt>
      <trkpt lat="49.203" lon="-0.61174">
        <ele>76.56</ele>
        <time>2014-11-16T12:26:32Z</time>
      </trkpt>
      <trkpt lat="49.20305" lon="-0.61206">
        <ele>76.08</ele>
        <time>2014-11-16T12:26:48Z</time>
      </trkpt>
      <trkpt lat="49.2031" lon="-0.61231">
        <ele>75.6</ele>
        <time>2014-11-16T12:27:01Z</time>
      </trkpt>
      <trkpt lat="49.20317" lon="-0.61263">
        <ele>75.12</ele>
        <time>2014-11-16T12:27:18Z</time>
      </trkpt>
      <trkpt lat="49.20322" lon="-0.61305">
        <ele>74.64</ele>
        <time>2014-11-16T12:27:39Z</time>
      </trkpt>
      <trkpt lat="49.20323" lon="-0.61307">
        <ele>74.64</ele>
        <time>2014-11-16T12:27:40Z</time>
      </trkpt>
      <trkpt lat="49.20326" lon="-0.61321">
        <ele>74.64</ele>
        <time>2014-11-16T12:27:47Z</time>
      </trkpt>
      <trkpt lat="49.20332" lon="-0.61357">
        <ele>74.16</ele>
        <time>2014-11-16T12:28:06Z</time>
      </trkpt>
      <trkpt lat="49.20332" lon="-0.61359">
        <ele>73.68</ele>
        <time>2014-11-16T12:28:07Z</time>
      </trkpt>
      <trkpt lat="49.20335" lon="-0.61393">
        <ele>73.68</ele>
        <time>2014-11-16T12:28:24Z</time>
      </trkpt>
      <trkpt lat="49.20341" lon="-0.6142">
        <ele>73.2</ele>
        <time>2014-11-16T12:28:39Z</time>
      </trkpt>
      <trkpt lat="49.20345" lon="-0.61453">
        <ele>73.68</ele>
        <time>2014-11-16T12:28:55Z</time>
      </trkpt>
      <trkpt lat="49.2035" lon="-0.61491">
        <ele>71.76</ele>
        <time>2014-11-16T12:29:14Z</time>
      </trkpt>
      <trkpt lat="49.20351" lon="-0.61499">
        <ele>71.76</ele>
        <time>2014-11-16T12:29:18Z</time>
      </trkpt>
      <trkpt lat="49.20356" lon="-0.61529">
        <ele>71.27</ele>
        <time>2014-11-16T12:29:33Z</time>
      </trkpt>
      <trkpt lat="49.20363" lon="-0.6157">
        <ele>70.31</ele>
        <time>2014-11-16T12:29:53Z</time>
      </trkpt>
      <trkpt lat="49.20366" lon="-0.616">
        <ele>69.83</ele>
        <time>2014-11-16T12:30:08Z</time>
      </trkpt>
      <trkpt lat="49.20371" lon="-0.61628">
        <ele>69.35</ele>
        <time>2014-11-16T12:30:23Z</time>
      </trkpt>
      <trkpt lat="49.20373" lon="-0.61647">
        <ele>69.35</ele>
        <time>2014-11-16T12:30:38Z</time>
      </trkpt>
      <trkpt lat="49.20373" lon="-0.61647">
        <ele>69.35</ele>
        <time>2014-11-16T12:30:40Z</time>
      </trkpt>
      <trkpt lat="49.20374" lon="-0.61657">
        <ele>68.87</ele>
        <time>2014-11-16T12:30:46Z</time>
      </trkpt>
      <trkpt lat="49.20377" lon="-0.61673">
        <ele>68.87</ele>
        <time>2014-11-16T12:30:53Z</time>
      </trkpt>
      <trkpt lat="49.20378" lon="-0.61681">
        <ele>68.87</ele>
        <time>2014-11-16T12:30:57Z</time>
      </trkpt>
      <trkpt lat="49.20384" lon="-0.61712">
        <ele>68.39</ele>
        <time>2014-11-16T12:31:12Z</time>
      </trkpt>
      <trkpt lat="49.2039" lon="-0.61743">
        <ele>67.91</ele>
        <time>2014-11-16T12:31:27Z</time>
      </trkpt>
      <trkpt lat="49.20392" lon="-0.61777">
        <ele>66.95</ele>
        <time>2014-11-16T12:31:43Z</time>
      </trkpt>
      <trkpt lat="49.20393" lon="-0.61802">
        <ele>66.47</ele>
        <time>2014-11-16T12:31:58Z</time>
      </trkpt>
      <trkpt lat="49.20394" lon="-0.61813">
        <ele>65.99</ele>
        <time>2014-11-16T12:32:03Z</time>
      </trkpt>
      <trkpt lat="49.20394" lon="-0.61828">
        <ele>65.99</ele>
        <time>2014-11-16T12:32:10Z</time>
      </trkpt>
      <trkpt lat="49.20396" lon="-0.61841">
        <ele>65.99</ele>
        <time>2014-11-16T12:32:17Z</time>
      </trkpt>
      <trkpt lat="49.20401" lon="-0.61863">
        <ele>65.51</ele>
        <time>2014-11-16T12:32:28Z</time>
      </trkpt>
      <trkpt lat="49.20402" lon="-0.61876">
        <ele>65.51</ele>
        <time>2014-11-16T12:32:34Z</time>
      </trkpt>
      <trkpt lat="49.20404" lon="-0.6189">
        <ele>65.51</ele>
        <time>2014-11-16T12:32:41Z</time>
      </trkpt>
      <trkpt lat="49.20405" lon="-0.61902">
        <ele>65.03</ele>
        <time>2014-11-16T12:32:47Z</time>
      </trkpt>
      <trkpt lat="49.20405" lon="-0.61909">
        <ele>65.03</ele>
        <time>2014-11-16T12:32:50Z</time>
      </trkpt>
      <trkpt lat="49.20405" lon="-0.61919">
        <ele>65.03</ele>
        <time>2014-11-16T12:32:55Z</time>
      </trkpt>
      <trkpt lat="49.20409" lon="-0.61948">
        <ele>64.07</ele>
        <time>2014-11-16T12:33:10Z</time>
      </trkpt>
      <trkpt lat="49.2041" lon="-0.61952">
        <ele>64.07</ele>
        <time>2014-11-16T12:33:12Z</time>
      </trkpt>
      <trkpt lat="49.2041" lon="-0.61957">
        <ele>64.07</ele>
        <time>2014-11-16T12:33:14Z</time>
      </trkpt>
      <trkpt lat="49.20415" lon="-0.61993">
        <ele>63.58</ele>
        <time>2014-11-16T12:33:30Z</time>
      </trkpt>
      <trkpt lat="49.20419" lon="-0.62018">
        <ele>63.58</ele>
        <time>2014-11-16T12:33:42Z</time>
      </trkpt>
      <trkpt lat="49.20419" lon="-0.62026">
        <ele>63.58</ele>
        <time>2014-11-16T12:33:46Z</time>
      </trkpt>
      <trkpt lat="49.20421" lon="-0.62041">
        <ele>63.58</ele>
        <time>2014-11-16T12:33:53Z</time>
      </trkpt>
      <trkpt lat="49.20425" lon="-0.6207">
        <ele>63.58</ele>
        <time>2014-11-16T12:34:06Z</time>
      </trkpt>
      <trkpt lat="49.20429" lon="-0.62099">
        <ele>63.1</ele>
        <time>2014-11-16T12:34:20Z</time>
      </trkpt>
      <trkpt lat="49.20433" lon="-0.62133">
        <ele>63.1</ele>
        <time>2014-11-16T12:34:36Z</time>
      </trkpt>
      <trkpt lat="49.20436" lon="-0.62164">
        <ele>63.1</ele>
        <time>2014-11-16T12:34:50Z</time>
      </trkpt>
      <trkpt lat="49.20438" lon="-0.62186">
        <ele>62.62</ele>
        <time>2014-11-16T12:35:00Z</time>
      </trkpt>
      <trkpt lat="49.2044" lon="-0.62193">
        <ele>62.62</ele>
        <time>2014-11-16T12:35:04Z</time>
      </trkpt>
      <trkpt lat="49.2044" lon="-0.62197">
        <ele>62.62</ele>
        <time>2014-11-16T12:35:06Z</time>
      </trkpt>
      <trkpt lat="49.20446" lon="-0.62232">
        <ele>62.14</ele>
        <time>2014-11-16T12:35:21Z</time>
      </trkpt>
      <trkpt lat="49.20447" lon="-0.62242">
        <ele>62.14</ele>
        <time>2014-11-16T12:35:26Z</time>
      </trkpt>
      <trkpt lat="49.20447" lon="-0.6225">
        <ele>62.14</ele>
        <time>2014-11-16T12:35:30Z</time>
      </trkpt>
      <trkpt lat="49.20451" lon="-0.62289">
        <ele>62.14</ele>
        <time>2014-11-16T12:35:47Z</time>
      </trkpt>
      <trkpt lat="49.20456" lon="-0.62319">
        <ele>61.66</ele>
        <time>2014-11-16T12:36:01Z</time>
      </trkpt>
      <trkpt lat="49.20457" lon="-0.62335">
        <ele>61.66</ele>
        <time>2014-11-16T12:36:08Z</time>
      </trkpt>
      <trkpt lat="49.2046" lon="-0.62361">
        <ele>62.14</ele>
        <time>2014-11-16T12:36:20Z</time>
      </trkpt>
      <trkpt lat="49.20463" lon="-0.62396">
        <ele>61.66</ele>
        <time>2014-11-16T12:36:36Z</time>
      </trkpt>
      <trkpt lat="49.20466" lon="-0.62426">
        <ele>61.66</ele>
        <time>2014-11-16T12:36:50Z</time>
      </trkpt>
      <trkpt lat="49.20468" lon="-0.62436">
        <ele>61.66</ele>
        <time>2014-11-16T12:36:54Z</time>
      </trkpt>
      <trkpt lat="49.20468" lon="-0.62463">
        <ele>61.66</ele>
        <time>2014-11-16T12:37:07Z</time>
      </trkpt>
      <trkpt lat="49.20469" lon="-0.62476">
        <ele>61.66</ele>
        <time>2014-11-16T12:37:13Z</time>
      </trkpt>
      <trkpt lat="49.2047" lon="-0.62498">
        <ele>61.66</ele>
        <time>2014-11-16T12:37:23Z</time>
      </trkpt>
      <trkpt lat="49.2047" lon="-0.625">
        <ele>61.66</ele>
        <time>2014-11-16T12:37:24Z</time>
      </trkpt>
      <trkpt lat="49.20471" lon="-0.62529">
        <ele>61.66</ele>
        <time>2014-11-16T12:37:38Z</time>
      </trkpt>
      <trkpt lat="49.20468" lon="-0.6255">
        <ele>61.18</ele>
        <time>2014-11-16T12:37:50Z</time>
      </trkpt>
      <trkpt lat="49.20468" lon="-0.6256">
        <ele>61.18</ele>
        <time>2014-11-16T12:37:54Z</time>
      </trkpt>
      <trkpt lat="49.20469" lon="-0.62588">
        <ele>61.18</ele>
        <time>2014-11-16T12:38:06Z</time>
      </trkpt>
      <trkpt lat="49.20469" lon="-0.62603">
        <ele>61.18</ele>
        <time>2014-11-16T12:38:13Z</time>
      </trkpt>
      <trkpt lat="49.20469" lon="-0.62613">
        <ele>61.18</ele>
        <time>2014-11-16T12:38:18Z</time>
      </trkpt>
      <trkpt lat="49.20468" lon="-0.62648">
        <ele>60.7</ele>
        <time>2014-11-16T12:38:34Z</time>
      </trkpt>
      <trkpt lat="49.2047" lon="-0.62668">
        <ele>60.22</ele>
        <time>2014-11-16T12:38:43Z</time>
      </trkpt>
      <trkpt lat="49.20471" lon="-0.62702">
        <ele>59.74</ele>
        <time>2014-11-16T12:38:58Z</time>
      </trkpt>
      <trkpt lat="49.2047" lon="-0.62712">
        <ele>59.74</ele>
        <time>2014-11-16T12:39:03Z</time>
      </trkpt>
      <trkpt lat="49.20471" lon="-0.6275">
        <ele>59.26</ele>
        <time>2014-11-16T12:39:21Z</time>
      </trkpt>
      <trkpt lat="49.20471" lon="-0.62788">
        <ele>58.78</ele>
        <time>2014-11-16T12:39:38Z</time>
      </trkpt>
      <trkpt lat="49.20472" lon="-0.62818">
        <ele>57.82</ele>
        <time>2014-11-16T12:39:52Z</time>
      </trkpt>
      <trkpt lat="49.20475" lon="-0.62849">
        <ele>57.34</ele>
        <time>2014-11-16T12:40:06Z</time>
      </trkpt>
      <trkpt lat="49.20475" lon="-0.62867">
        <ele>56.86</ele>
        <time>2014-11-16T12:40:15Z</time>
      </trkpt>
      <trkpt lat="49.20476" lon="-0.62892">
        <ele>55.89</ele>
        <time>2014-11-16T12:40:26Z</time>
      </trkpt>
      <trkpt lat="49.2048" lon="-0.6293">
        <ele>54.45</ele>
        <time>2014-11-16T12:40:43Z</time>
      </trkpt>
      <trkpt lat="49.20477" lon="-0.62948">
        <ele>53.49</ele>
        <time>2014-11-16T12:40:55Z</time>
      </trkpt>
      <trkpt lat="49.20474" lon="-0.6295">
        <ele>53.49</ele>
        <time>2014-11-16T12:41:07Z</time>
      </trkpt>
      <trkpt lat="49.20473" lon="-0.6295">
        <ele>53.49</ele>
        <time>2014-11-16T12:41:16Z</time>
      </trkpt>
      <trkpt lat="49.20475" lon="-0.6295">
        <ele>53.01</ele>
        <time>2014-11-16T12:41:19Z</time>
      </trkpt>
      <trkpt lat="49.20491" lon="-0.62954">
        <ele>52.05</ele>
        <time>2014-11-16T12:41:33Z</time>
      </trkpt>
      <trkpt lat="49.20511" lon="-0.62962">
        <ele>50.61</ele>
        <time>2014-11-16T12:41:50Z</time>
      </trkpt>
      <trkpt lat="49.20512" lon="-0.62962">
        <ele>50.61</ele>
        <time>2014-11-16T12:41:51Z</time>
      </trkpt>
      <trkpt lat="49.20524" lon="-0.62969">
        <ele>49.65</ele>
        <time>2014-11-16T12:42:02Z</time>
      </trkpt>
      <trkpt lat="49.20543" lon="-0.62982">
        <ele>48.68</ele>
        <time>2014-11-16T12:42:17Z</time>
      </trkpt>
      <trkpt lat="49.2056" lon="-0.62995">
        <ele>47.24</ele>
        <time>2014-11-16T12:42:31Z</time>
      </trkpt>
      <trkpt lat="49.20578" lon="-0.63011">
        <ele>45.8</ele>
        <time>2014-11-16T12:42:46Z</time>
      </trkpt>
      <trkpt lat="49.20596" lon="-0.63016">
        <ele>45.32</ele>
        <time>2014-11-16T12:43:00Z</time>
      </trkpt>
      <trkpt lat="49.20612" lon="-0.6301">
        <ele>45.32</ele>
        <time>2014-11-16T12:43:13Z</time>
      </trkpt>
      <trkpt lat="49.2063" lon="-0.63002">
        <ele>44.84</ele>
        <time>2014-11-16T12:43:28Z</time>
      </trkpt>
      <trkpt lat="49.2065" lon="-0.6299">
        <ele>44.36</ele>
        <time>2014-11-16T12:43:44Z</time>
      </trkpt>
      <trkpt lat="49.20676" lon="-0.62976">
        <ele>43.88</ele>
        <time>2014-11-16T12:44:02Z</time>
      </trkpt>
      <trkpt lat="49.20698" lon="-0.62962">
        <ele>43.4</ele>
        <time>2014-11-16T12:44:19Z</time>
      </trkpt>
      <trkpt lat="49.20719" lon="-0.62946">
        <ele>43.4</ele>
        <time>2014-11-16T12:44:37Z</time>
      </trkpt>
      <trkpt lat="49.20736" lon="-0.62936">
        <ele>42.44</ele>
        <time>2014-11-16T12:44:52Z</time>
      </trkpt>
      <trkpt lat="49.20755" lon="-0.62924">
        <ele>42.44</ele>
        <time>2014-11-16T12:45:09Z</time>
      </trkpt>
      <trkpt lat="49.20774" lon="-0.62908">
        <ele>41.95</ele>
        <time>2014-11-16T12:45:26Z</time>
      </trkpt>
      <trkpt lat="49.2079" lon="-0.62896">
        <ele>41.47</ele>
        <time>2014-11-16T12:45:40Z</time>
      </trkpt>
      <trkpt lat="49.20805" lon="-0.6288">
        <ele>41.47</ele>
        <time>2014-11-16T12:45:55Z</time>
      </trkpt>
      <trkpt lat="49.20811" lon="-0.62872">
        <ele>41.47</ele>
        <time>2014-11-16T12:46:00Z</time>
      </trkpt>
      <trkpt lat="49.20823" lon="-0.62854">
        <ele>40.51</ele>
        <time>2014-11-16T12:46:13Z</time>
      </trkpt>
      <trkpt lat="49.20824" lon="-0.62852">
        <ele>40.51</ele>
        <time>2014-11-16T12:46:15Z</time>
      </trkpt>
      <trkpt lat="49.20836" lon="-0.62854">
        <ele>40.51</ele>
        <time>2014-11-16T12:46:29Z</time>
      </trkpt>
      <trkpt lat="49.20848" lon="-0.62858">
        <ele>40.03</ele>
        <time>2014-11-16T12:46:41Z</time>
      </trkpt>
      <trkpt lat="49.20864" lon="-0.62867">
        <ele>40.03</ele>
        <time>2014-11-16T12:46:56Z</time>
      </trkpt>
      <trkpt lat="49.20879" lon="-0.62874">
        <ele>40.03</ele>
        <time>2014-11-16T12:47:09Z</time>
      </trkpt>
      <trkpt lat="49.20894" lon="-0.62887">
        <ele>40.51</ele>
        <time>2014-11-16T12:47:23Z</time>
      </trkpt>
      <trkpt lat="49.20914" lon="-0.62896">
        <ele>40.51</ele>
        <time>2014-11-16T12:47:39Z</time>
      </trkpt>
      <trkpt lat="49.20929" lon="-0.62904">
        <ele>40.03</ele>
        <time>2014-11-16T12:47:55Z</time>
      </trkpt>
      <trkpt lat="49.20947" lon="-0.62905">
        <ele>40.51</ele>
        <time>2014-11-16T12:48:09Z</time>
      </trkpt>
      <trkpt lat="49.20954" lon="-0.62907">
        <ele>40.99</ele>
        <time>2014-11-16T12:48:15Z</time>
      </trkpt>
      <trkpt lat="49.20968" lon="-0.6291">
        <ele>40.99</ele>
        <time>2014-11-16T12:48:28Z</time>
      </trkpt>
      <trkpt lat="49.20971" lon="-0.6291">
        <ele>40.51</ele>
        <time>2014-11-16T12:48:31Z</time>
      </trkpt>
      <trkpt lat="49.20985" lon="-0.62913">
        <ele>40.99</ele>
        <time>2014-11-16T12:48:44Z</time>
      </trkpt>
      <trkpt lat="49.20998" lon="-0.62933">
        <ele>42.92</ele>
        <time>2014-11-16T12:48:59Z</time>
      </trkpt>
      <trkpt lat="49.21013" lon="-0.62954">
        <ele>45.8</ele>
        <time>2014-11-16T12:49:16Z</time>
      </trkpt>
      <trkpt lat="49.2103" lon="-0.62977">
        <ele>47.72</ele>
        <time>2014-11-16T12:49:33Z</time>
      </trkpt>
      <trkpt lat="49.21031" lon="-0.62977">
        <ele>48.2</ele>
        <time>2014-11-16T12:49:34Z</time>
      </trkpt>
      <trkpt lat="49.21042" lon="-0.62982">
        <ele>49.16</ele>
        <time>2014-11-16T12:49:49Z</time>
      </trkpt>
      <trkpt lat="49.21045" lon="-0.6298">
        <ele>49.65</ele>
        <time>2014-11-16T12:49:53Z</time>
      </trkpt>
      <trkpt lat="49.21051" lon="-0.62962">
        <ele>49.65</ele>
        <time>2014-11-16T12:50:07Z</time>
      </trkpt>
      <trkpt lat="49.21064" lon="-0.62926">
        <ele>49.16</ele>
        <time>2014-11-16T12:50:26Z</time>
      </trkpt>
      <trkpt lat="49.21068" lon="-0.62904">
        <ele>48.68</ele>
        <time>2014-11-16T12:50:39Z</time>
      </trkpt>
      <trkpt lat="49.21074" lon="-0.62886">
        <ele>48.68</ele>
        <time>2014-11-16T12:50:53Z</time>
      </trkpt>
      <trkpt lat="49.21075" lon="-0.62884">
        <ele>48.2</ele>
        <time>2014-11-16T12:51:16Z</time>
      </trkpt>
      <trkpt lat="49.21075" lon="-0.62884">
        <ele>48.2</ele>
        <time>2014-11-16T12:51:41Z</time>
      </trkpt>
      <trkpt lat="49.21075" lon="-0.62884">
        <ele>48.2</ele>
        <time>2014-11-16T12:51:52Z</time>
      </trkpt>
      <trkpt lat="49.21075" lon="-0.62883">
        <ele>48.2</ele>
        <time>2014-11-16T12:52:12Z</time>
      </trkpt>
      <trkpt lat="49.21077" lon="-0.62883">
        <ele>48.2</ele>
        <time>2014-11-16T12:52:29Z</time>
      </trkpt>
      <trkpt lat="49.21081" lon="-0.62882">
        <ele>48.2</ele>
        <time>2014-11-16T12:52:44Z</time>
      </trkpt>
      <trkpt lat="49.21084" lon="-0.62879">
        <ele>48.2</ele>
        <time>2014-11-16T12:52:48Z</time>
      </trkpt>
      <trkpt lat="49.21088" lon="-0.62879">
        <ele>48.68</ele>
        <time>2014-11-16T12:52:51Z</time>
      </trkpt>
      <trkpt lat="49.21095" lon="-0.62878">
        <ele>48.68</ele>
        <time>2014-11-16T12:53:05Z</time>
      </trkpt>
      <trkpt lat="49.21098" lon="-0.62879">
        <ele>48.68</ele>
        <time>2014-11-16T12:53:20Z</time>
      </trkpt>
      <trkpt lat="49.21098" lon="-0.62879">
        <ele>48.2</ele>
        <time>2014-11-16T12:53:23Z</time>
      </trkpt>
      <trkpt lat="49.21101" lon="-0.62886">
        <ele>48.68</ele>
        <time>2014-11-16T12:53:38Z</time>
      </trkpt>
      <trkpt lat="49.21106" lon="-0.62889">
        <ele>48.68</ele>
        <time>2014-11-16T12:53:53Z</time>
      </trkpt>
      <trkpt lat="49.21104" lon="-0.62889">
        <ele>48.2</ele>
        <time>2014-11-16T12:54:06Z</time>
      </trkpt>
      <trkpt lat="49.211" lon="-0.62892">
        <ele>48.2</ele>
        <time>2014-11-16T12:54:21Z</time>
      </trkpt>
      <trkpt lat="49.21095" lon="-0.6289">
        <ele>48.2</ele>
        <time>2014-11-16T12:54:34Z</time>
      </trkpt>
      <trkpt lat="49.21091" lon="-0.62887">
        <ele>48.2</ele>
        <time>2014-11-16T12:54:48Z</time>
      </trkpt>
      <trkpt lat="49.21087" lon="-0.62887">
        <ele>48.2</ele>
        <time>2014-11-16T12:54:53Z</time>
      </trkpt>
      <trkpt lat="49.21081" lon="-0.62884">
        <ele>47.72</ele>
        <time>2014-11-16T12:55:06Z</time>
      </trkpt>
      <trkpt lat="49.21081" lon="-0.6288">
        <ele>47.24</ele>
        <time>2014-11-16T12:55:20Z</time>
      </trkpt>
      <trkpt lat="49.2108" lon="-0.6288">
        <ele>47.24</ele>
        <time>2014-11-16T12:55:39Z</time>
      </trkpt>
      <trkpt lat="49.21079" lon="-0.62876">
        <ele>47.24</ele>
        <time>2014-11-16T12:55:54Z</time>
      </trkpt>
      <trkpt lat="49.2108" lon="-0.62868">
        <ele>46.76</ele>
        <time>2014-11-16T12:56:07Z</time>
      </trkpt>
      <trkpt lat="49.2108" lon="-0.62858">
        <ele>46.76</ele>
        <time>2014-11-16T12:56:21Z</time>
      </trkpt>
      <trkpt lat="49.2108" lon="-0.62847">
        <ele>46.76</ele>
        <time>2014-11-16T12:56:37Z</time>
      </trkpt>
      <trkpt lat="49.21084" lon="-0.62838">
        <ele>46.28</ele>
        <time>2014-11-16T12:56:47Z</time>
      </trkpt>
      <trkpt lat="49.21087" lon="-0.62829">
        <ele>47.72</ele>
        <time>2014-11-16T12:57:01Z</time>
      </trkpt>
      <trkpt lat="49.21086" lon="-0.62821">
        <ele>46.28</ele>
        <time>2014-11-16T12:57:15Z</time>
      </trkpt>
      <trkpt lat="49.21081" lon="-0.62816">
        <ele>45.8</ele>
        <time>2014-11-16T12:57:27Z</time>
      </trkpt>
      <trkpt lat="49.21078" lon="-0.62815">
        <ele>45.8</ele>
        <time>2014-11-16T12:57:30Z</time>
      </trkpt>
      <trkpt lat="49.21068" lon="-0.62808">
        <ele>45.32</ele>
        <time>2014-11-16T12:57:42Z</time>
      </trkpt>
      <trkpt lat="49.21065" lon="-0.62801">
        <ele>45.32</ele>
        <time>2014-11-16T12:57:47Z</time>
      </trkpt>
      <trkpt lat="49.21064" lon="-0.62788">
        <ele>44.84</ele>
        <time>2014-11-16T12:58:01Z</time>
      </trkpt>
      <trkpt lat="49.21064" lon="-0.62786">
        <ele>44.36</ele>
        <time>2014-11-16T12:58:24Z</time>
      </trkpt>
      <trkpt lat="49.21065" lon="-0.62794">
        <ele>44.84</ele>
        <time>2014-11-16T12:58:36Z</time>
      </trkpt>
      <trkpt lat="49.21068" lon="-0.628">
        <ele>45.32</ele>
        <time>2014-11-16T12:58:43Z</time>
      </trkpt>
      <trkpt lat="49.21079" lon="-0.62805">
        <ele>45.8</ele>
        <time>2014-11-16T12:58:54Z</time>
      </trkpt>
      <trkpt lat="49.21082" lon="-0.62805">
        <ele>45.8</ele>
        <time>2014-11-16T12:58:57Z</time>
      </trkpt>
      <trkpt lat="49.21091" lon="-0.62815">
        <ele>46.28</ele>
        <time>2014-11-16T12:59:06Z</time>
      </trkpt>
      <trkpt lat="49.21104" lon="-0.62815">
        <ele>46.28</ele>
        <time>2014-11-16T12:59:19Z</time>
      </trkpt>
      <trkpt lat="49.21121" lon="-0.62821">
        <ele>46.76</ele>
        <time>2014-11-16T12:59:36Z</time>
      </trkpt>
      <trkpt lat="49.21132" lon="-0.62824">
        <ele>46.28</ele>
        <time>2014-11-16T12:59:45Z</time>
      </trkpt>
      <trkpt lat="49.21136" lon="-0.62826">
        <ele>46.28</ele>
        <time>2014-11-16T12:59:48Z</time>
      </trkpt>
      <trkpt lat="49.21152" lon="-0.62827">
        <ele>45.8</ele>
        <time>2014-11-16T13:00:04Z</time>
      </trkpt>
      <trkpt lat="49.21153" lon="-0.62827">
        <ele>46.28</ele>
        <time>2014-11-16T13:00:05Z</time>
      </trkpt>
      <trkpt lat="49.2117" lon="-0.6283">
        <ele>44.84</ele>
        <time>2014-11-16T13:00:19Z</time>
      </trkpt>
      <trkpt lat="49.21179" lon="-0.62827">
        <ele>44.84</ele>
        <time>2014-11-16T13:00:26Z</time>
      </trkpt>
      <trkpt lat="49.21189" lon="-0.62829">
        <ele>43.88</ele>
        <time>2014-11-16T13:00:42Z</time>
      </trkpt>
      <trkpt lat="49.21191" lon="-0.62832">
        <ele>44.36</ele>
        <time>2014-11-16T13:00:46Z</time>
      </trkpt>
      <trkpt lat="49.21192" lon="-0.62873">
        <ele>44.36</ele>
        <time>2014-11-16T13:01:04Z</time>
      </trkpt>
      <trkpt lat="49.21192" lon="-0.62877">
        <ele>44.84</ele>
        <time>2014-11-16T13:01:06Z</time>
      </trkpt>
      <trkpt lat="49.2119" lon="-0.62892">
        <ele>44.84</ele>
        <time>2014-11-16T13:01:14Z</time>
      </trkpt>
      <trkpt lat="49.21187" lon="-0.62928">
        <ele>45.32</ele>
        <time>2014-11-16T13:01:32Z</time>
      </trkpt>
      <trkpt lat="49.21184" lon="-0.62955">
        <ele>45.32</ele>
        <time>2014-11-16T13:01:46Z</time>
      </trkpt>
      <trkpt lat="49.21184" lon="-0.62957">
        <ele>45.8</ele>
        <time>2014-11-16T13:01:47Z</time>
      </trkpt>
      <trkpt lat="49.21183" lon="-0.62964">
        <ele>45.8</ele>
        <time>2014-11-16T13:01:51Z</time>
      </trkpt>
      <trkpt lat="49.2118" lon="-0.62973">
        <ele>45.8</ele>
        <time>2014-11-16T13:01:56Z</time>
      </trkpt>
      <trkpt lat="49.21175" lon="-0.62987">
        <ele>46.28</ele>
        <time>2014-11-16T13:02:04Z</time>
      </trkpt>
      <trkpt lat="49.21169" lon="-0.6301">
        <ele>47.24</ele>
        <time>2014-11-16T13:02:17Z</time>
      </trkpt>
      <trkpt lat="49.21158" lon="-0.63024">
        <ele>47.72</ele>
        <time>2014-11-16T13:02:32Z</time>
      </trkpt>
      <trkpt lat="49.21156" lon="-0.63024">
        <ele>47.72</ele>
        <time>2014-11-16T13:02:34Z</time>
      </trkpt>
      <trkpt lat="49.21151" lon="-0.63022">
        <ele>48.2</ele>
        <time>2014-11-16T13:02:38Z</time>
      </trkpt>
      <trkpt lat="49.21133" lon="-0.63019">
        <ele>48.2</ele>
        <time>2014-11-16T13:02:52Z</time>
      </trkpt>
      <trkpt lat="49.21114" lon="-0.63014">
        <ele>48.68</ele>
        <time>2014-11-16T13:03:06Z</time>
      </trkpt>
      <trkpt lat="49.21099" lon="-0.63013">
        <ele>48.68</ele>
        <time>2014-11-16T13:03:18Z</time>
      </trkpt>
      <trkpt lat="49.21079" lon="-0.63013">
        <ele>49.16</ele>
        <time>2014-11-16T13:03:33Z</time>
      </trkpt>
      <trkpt lat="49.21077" lon="-0.63013">
        <ele>49.16</ele>
        <time>2014-11-16T13:03:35Z</time>
      </trkpt>
      <trkpt lat="49.2107" lon="-0.63017">
        <ele>48.68</ele>
        <time>2014-11-16T13:03:42Z</time>
      </trkpt>
      <trkpt lat="49.2107" lon="-0.63021">
        <ele>49.16</ele>
        <time>2014-11-16T13:03:45Z</time>
      </trkpt>
      <trkpt lat="49.21068" lon="-0.63026">
        <ele>49.16</ele>
        <time>2014-11-16T13:03:49Z</time>
      </trkpt>
      <trkpt lat="49.21064" lon="-0.63044">
        <ele>49.65</ele>
        <time>2014-11-16T13:03:59Z</time>
      </trkpt>
      <trkpt lat="49.21059" lon="-0.63063">
        <ele>49.16</ele>
        <time>2014-11-16T13:04:11Z</time>
      </trkpt>
      <trkpt lat="49.21054" lon="-0.63082">
        <ele>49.65</ele>
        <time>2014-11-16T13:04:21Z</time>
      </trkpt>
      <trkpt lat="49.21053" lon="-0.6309">
        <ele>49.65</ele>
        <time>2014-11-16T13:04:25Z</time>
      </trkpt>
      <trkpt lat="49.21053" lon="-0.63104">
        <ele>49.65</ele>
        <time>2014-11-16T13:04:34Z</time>
      </trkpt>
      <trkpt lat="49.21054" lon="-0.63132">
        <ele>49.65</ele>
        <time>2014-11-16T13:04:49Z</time>
      </trkpt>
      <trkpt lat="49.21055" lon="-0.63163">
        <ele>50.61</ele>
        <time>2014-11-16T13:05:04Z</time>
      </trkpt>
      <trkpt lat="49.21056" lon="-0.63171">
        <ele>50.61</ele>
        <time>2014-11-16T13:05:08Z</time>
      </trkpt>
      <trkpt lat="49.21056" lon="-0.6318">
        <ele>50.61</ele>
        <time>2014-11-16T13:05:12Z</time>
      </trkpt>
      <trkpt lat="49.21057" lon="-0.63201">
        <ele>50.61</ele>
        <time>2014-11-16T13:05:22Z</time>
      </trkpt>
      <trkpt lat="49.21057" lon="-0.63207">
        <ele>50.61</ele>
        <time>2014-11-16T13:05:25Z</time>
      </trkpt>
      <trkpt lat="49.21052" lon="-0.63222">
        <ele>51.09</ele>
        <time>2014-11-16T13:05:33Z</time>
      </trkpt>
      <trkpt lat="49.21052" lon="-0.63234">
        <ele>51.57</ele>
        <time>2014-11-16T13:05:40Z</time>
      </trkpt>
      <trkpt lat="49.2105" lon="-0.63239">
        <ele>51.57</ele>
        <time>2014-11-16T13:05:52Z</time>
      </trkpt>
      <trkpt lat="49.21051" lon="-0.63236">
        <ele>51.57</ele>
        <time>2014-11-16T13:06:04Z</time>
      </trkpt>
      <trkpt lat="49.21057" lon="-0.63238">
        <ele>51.57</ele>
        <time>2014-11-16T13:06:20Z</time>
      </trkpt>
      <trkpt lat="49.21064" lon="-0.63245">
        <ele>51.57</ele>
        <time>2014-11-16T13:06:33Z</time>
      </trkpt>
      <trkpt lat="49.21068" lon="-0.6325">
        <ele>51.57</ele>
        <time>2014-11-16T13:06:51Z</time>
      </trkpt>
      <trkpt lat="49.21077" lon="-0.63258">
        <ele>52.05</ele>
        <time>2014-11-16T13:07:03Z</time>
      </trkpt>
      <trkpt lat="49.21079" lon="-0.63259">
        <ele>52.05</ele>
        <time>2014-11-16T13:07:05Z</time>
      </trkpt>
      <trkpt lat="49.21081" lon="-0.63263">
        <ele>52.05</ele>
        <time>2014-11-16T13:07:08Z</time>
      </trkpt>
      <trkpt lat="49.21097" lon="-0.63281">
        <ele>52.53</ele>
        <time>2014-11-16T13:07:25Z</time>
      </trkpt>
      <trkpt lat="49.21113" lon="-0.63299">
        <ele>52.53</ele>
        <time>2014-11-16T13:07:39Z</time>
      </trkpt>
      <trkpt lat="49.2112" lon="-0.63309">
        <ele>52.05</ele>
        <time>2014-11-16T13:07:46Z</time>
      </trkpt>
      <trkpt lat="49.21112" lon="-0.63343">
        <ele>52.05</ele>
        <time>2014-11-16T13:08:03Z</time>
      </trkpt>
      <trkpt lat="49.21103" lon="-0.63372">
        <ele>52.53</ele>
        <time>2014-11-16T13:08:19Z</time>
      </trkpt>
      <trkpt lat="49.21095" lon="-0.63401">
        <ele>53.01</ele>
        <time>2014-11-16T13:08:34Z</time>
      </trkpt>
      <trkpt lat="49.21094" lon="-0.63405">
        <ele>53.01</ele>
        <time>2014-11-16T13:08:36Z</time>
      </trkpt>
      <trkpt lat="49.21091" lon="-0.63414">
        <ele>53.49</ele>
        <time>2014-11-16T13:08:41Z</time>
      </trkpt>
      <trkpt lat="49.21089" lon="-0.6342">
        <ele>53.49</ele>
        <time>2014-11-16T13:08:46Z</time>
      </trkpt>
      <trkpt lat="49.21084" lon="-0.63435">
        <ele>53.97</ele>
        <time>2014-11-16T13:08:54Z</time>
      </trkpt>
      <trkpt lat="49.2108" lon="-0.63442">
        <ele>54.45</ele>
        <time>2014-11-16T13:08:59Z</time>
      </trkpt>
      <trkpt lat="49.21062" lon="-0.63452">
        <ele>54.93</ele>
        <time>2014-11-16T13:09:15Z</time>
      </trkpt>
      <trkpt lat="49.21056" lon="-0.63454">
        <ele>54.93</ele>
        <time>2014-11-16T13:09:19Z</time>
      </trkpt>
      <trkpt lat="49.21048" lon="-0.6346">
        <ele>54.93</ele>
        <time>2014-11-16T13:09:26Z</time>
      </trkpt>
      <trkpt lat="49.21031" lon="-0.63472">
        <ele>54.45</ele>
        <time>2014-11-16T13:09:39Z</time>
      </trkpt>
      <trkpt lat="49.21014" lon="-0.63482">
        <ele>54.45</ele>
        <time>2014-11-16T13:09:52Z</time>
      </trkpt>
      <trkpt lat="49.21001" lon="-0.63494">
        <ele>53.97</ele>
        <time>2014-11-16T13:10:03Z</time>
      </trkpt>
      <trkpt lat="49.20983" lon="-0.63509">
        <ele>53.97</ele>
        <time>2014-11-16T13:10:18Z</time>
      </trkpt>
      <trkpt lat="49.2098" lon="-0.63515">
        <ele>54.45</ele>
        <time>2014-11-16T13:10:23Z</time>
      </trkpt>
      <trkpt lat="49.20977" lon="-0.6352">
        <ele>53.97</ele>
        <time>2014-11-16T13:10:26Z</time>
      </trkpt>
      <trkpt lat="49.20967" lon="-0.63535">
        <ele>53.97</ele>
        <time>2014-11-16T13:10:35Z</time>
      </trkpt>
      <trkpt lat="49.20954" lon="-0.63551">
        <ele>53.49</ele>
        <time>2014-11-16T13:10:47Z</time>
      </trkpt>
      <trkpt lat="49.20942" lon="-0.6356">
        <ele>53.01</ele>
        <time>2014-11-16T13:10:56Z</time>
      </trkpt>
      <trkpt lat="49.20928" lon="-0.63568">
        <ele>52.53</ele>
        <time>2014-11-16T13:11:09Z</time>
      </trkpt>
      <trkpt lat="49.20921" lon="-0.63569">
        <ele>52.53</ele>
        <time>2014-11-16T13:11:13Z</time>
      </trkpt>
      <trkpt lat="49.20891" lon="-0.63579">
        <ele>52.05</ele>
        <time>2014-11-16T13:11:33Z</time>
      </trkpt>
      <trkpt lat="49.2087" lon="-0.63584">
        <ele>52.05</ele>
        <time>2014-11-16T13:11:48Z</time>
      </trkpt>
      <trkpt lat="49.20852" lon="-0.63586">
        <ele>52.05</ele>
        <time>2014-11-16T13:12:00Z</time>
      </trkpt>
      <trkpt lat="49.20833" lon="-0.63589">
        <ele>52.05</ele>
        <time>2014-11-16T13:12:12Z</time>
      </trkpt>
      <trkpt lat="49.20826" lon="-0.63589">
        <ele>52.05</ele>
        <time>2014-11-16T13:12:17Z</time>
      </trkpt>
      <trkpt lat="49.20806" lon="-0.63591">
        <ele>53.01</ele>
        <time>2014-11-16T13:12:32Z</time>
      </trkpt>
      <trkpt lat="49.20787" lon="-0.63594">
        <ele>53.01</ele>
        <time>2014-11-16T13:12:45Z</time>
      </trkpt>
      <trkpt lat="49.20766" lon="-0.63594">
        <ele>53.01</ele>
        <time>2014-11-16T13:13:01Z</time>
      </trkpt>
      <trkpt lat="49.20746" lon="-0.63599">
        <ele>53.01</ele>
        <time>2014-11-16T13:13:13Z</time>
      </trkpt>
      <trkpt lat="49.20728" lon="-0.63603">
        <ele>52.53</ele>
        <time>2014-11-16T13:13:25Z</time>
      </trkpt>
      <trkpt lat="49.2071" lon="-0.63608">
        <ele>52.05</ele>
        <time>2014-11-16T13:13:38Z</time>
      </trkpt>
      <trkpt lat="49.2069" lon="-0.63616">
        <ele>51.57</ele>
        <time>2014-11-16T13:13:51Z</time>
      </trkpt>
      <trkpt lat="49.20676" lon="-0.63621">
        <ele>50.13</ele>
        <time>2014-11-16T13:14:02Z</time>
      </trkpt>
      <trkpt lat="49.2066" lon="-0.63618">
        <ele>49.65</ele>
        <time>2014-11-16T13:14:14Z</time>
      </trkpt>
      <trkpt lat="49.20658" lon="-0.63613">
        <ele>50.13</ele>
        <time>2014-11-16T13:14:17Z</time>
      </trkpt>
      <trkpt lat="49.20645" lon="-0.63604">
        <ele>51.57</ele>
        <time>2014-11-16T13:14:26Z</time>
      </trkpt>
      <trkpt lat="49.20637" lon="-0.63593">
        <ele>52.05</ele>
        <time>2014-11-16T13:14:35Z</time>
      </trkpt>
      <trkpt lat="49.20629" lon="-0.63584">
        <ele>51.57</ele>
        <time>2014-11-16T13:14:46Z</time>
      </trkpt>
      <trkpt lat="49.20623" lon="-0.63576">
        <ele>51.09</ele>
        <time>2014-11-16T13:14:59Z</time>
      </trkpt>
      <trkpt lat="49.20621" lon="-0.63573">
        <ele>51.09</ele>
        <time>2014-11-16T13:15:02Z</time>
      </trkpt>
      <trkpt lat="49.20616" lon="-0.63569">
        <ele>50.61</ele>
        <time>2014-11-16T13:15:15Z</time>
      </trkpt>
      <trkpt lat="49.20614" lon="-0.63568">
        <ele>50.61</ele>
        <time>2014-11-16T13:15:25Z</time>
      </trkpt>
      <trkpt lat="49.20608" lon="-0.63563">
        <ele>49.65</ele>
        <time>2014-11-16T13:15:32Z</time>
      </trkpt>
      <trkpt lat="49.20606" lon="-0.63562">
        <ele>49.65</ele>
        <time>2014-11-16T13:15:34Z</time>
      </trkpt>
      <trkpt lat="49.20592" lon="-0.63545">
        <ele>48.68</ele>
        <time>2014-11-16T13:15:49Z</time>
      </trkpt>
      <trkpt lat="49.20591" lon="-0.63544">
        <ele>48.68</ele>
        <time>2014-11-16T13:15:50Z</time>
      </trkpt>
      <trkpt lat="49.20587" lon="-0.63535">
        <ele>48.2</ele>
        <time>2014-11-16T13:15:56Z</time>
      </trkpt>
      <trkpt lat="49.2058" lon="-0.6351">
        <ele>47.24</ele>
        <time>2014-11-16T13:16:09Z</time>
      </trkpt>
      <trkpt lat="49.20574" lon="-0.63477">
        <ele>46.28</ele>
        <time>2014-11-16T13:16:24Z</time>
      </trkpt>
      <trkpt lat="49.20571" lon="-0.63458">
        <ele>45.32</ele>
        <time>2014-11-16T13:16:35Z</time>
      </trkpt>
      <trkpt lat="49.20565" lon="-0.63433">
        <ele>44.36</ele>
        <time>2014-11-16T13:16:49Z</time>
      </trkpt>
      <trkpt lat="49.20555" lon="-0.63418">
        <ele>45.32</ele>
        <time>2014-11-16T13:17:03Z</time>
      </trkpt>
      <trkpt lat="49.20537" lon="-0.63424">
        <ele>43.88</ele>
        <time>2014-11-16T13:17:19Z</time>
      </trkpt>
      <trkpt lat="49.20532" lon="-0.63424">
        <ele>43.88</ele>
        <time>2014-11-16T13:17:24Z</time>
      </trkpt>
      <trkpt lat="49.20535" lon="-0.63421">
        <ele>43.88</ele>
        <time>2014-11-16T13:17:27Z</time>
      </trkpt>
      <trkpt lat="49.20543" lon="-0.63414">
        <ele>43.88</ele>
        <time>2014-11-16T13:17:37Z</time>
      </trkpt>
      <trkpt lat="49.20548" lon="-0.63411">
        <ele>43.88</ele>
        <time>2014-11-16T13:17:41Z</time>
      </trkpt>
      <trkpt lat="49.20563" lon="-0.63405">
        <ele>43.88</ele>
        <time>2014-11-16T13:17:57Z</time>
      </trkpt>
      <trkpt lat="49.20576" lon="-0.63401">
        <ele>44.36</ele>
        <time>2014-11-16T13:18:11Z</time>
      </trkpt>
      <trkpt lat="49.20586" lon="-0.63396">
        <ele>44.36</ele>
        <time>2014-11-16T13:18:25Z</time>
      </trkpt>
      <trkpt lat="49.20599" lon="-0.63395">
        <ele>44.36</ele>
        <time>2014-11-16T13:18:39Z</time>
      </trkpt>
      <trkpt lat="49.20605" lon="-0.63394">
        <ele>44.36</ele>
        <time>2014-11-16T13:18:46Z</time>
      </trkpt>
      <trkpt lat="49.20626" lon="-0.63385">
        <ele>45.32</ele>
        <time>2014-11-16T13:19:03Z</time>
      </trkpt>
      <trkpt lat="49.20642" lon="-0.63381">
        <ele>43.88</ele>
        <time>2014-11-16T13:19:16Z</time>
      </trkpt>
      <trkpt lat="49.20662" lon="-0.63373">
        <ele>43.4</ele>
        <time>2014-11-16T13:19:33Z</time>
      </trkpt>
      <trkpt lat="49.20681" lon="-0.63366">
        <ele>42.92</ele>
        <time>2014-11-16T13:19:49Z</time>
      </trkpt>
      <trkpt lat="49.20699" lon="-0.63359">
        <ele>42.92</ele>
        <time>2014-11-16T13:20:04Z</time>
      </trkpt>
      <trkpt lat="49.20713" lon="-0.63354">
        <ele>42.44</ele>
        <time>2014-11-16T13:20:16Z</time>
      </trkpt>
      <trkpt lat="49.20729" lon="-0.63346">
        <ele>42.44</ele>
        <time>2014-11-16T13:20:30Z</time>
      </trkpt>
      <trkpt lat="49.20753" lon="-0.63339">
        <ele>42.44</ele>
        <time>2014-11-16T13:20:49Z</time>
      </trkpt>
      <trkpt lat="49.20775" lon="-0.63347">
        <ele>42.92</ele>
        <time>2014-11-16T13:21:07Z</time>
      </trkpt>
      <trkpt lat="49.20792" lon="-0.63361">
        <ele>42.92</ele>
        <time>2014-11-16T13:21:22Z</time>
      </trkpt>
      <trkpt lat="49.20799" lon="-0.63368">
        <ele>43.4</ele>
        <time>2014-11-16T13:21:36Z</time>
      </trkpt>
      <trkpt lat="49.20799" lon="-0.6337">
        <ele>43.4</ele>
        <time>2014-11-16T13:21:52Z</time>
      </trkpt>
      <trkpt lat="49.20802" lon="-0.63363">
        <ele>42.92</ele>
        <time>2014-11-16T13:22:09Z</time>
      </trkpt>
      <trkpt lat="49.20811" lon="-0.63358">
        <ele>43.88</ele>
        <time>2014-11-16T13:22:26Z</time>
      </trkpt>
      <trkpt lat="49.20815" lon="-0.6336">
        <ele>43.88</ele>
        <time>2014-11-16T13:22:35Z</time>
      </trkpt>
      <trkpt lat="49.20816" lon="-0.63362">
        <ele>43.88</ele>
        <time>2014-11-16T13:22:37Z</time>
      </trkpt>
      <trkpt lat="49.20834" lon="-0.63387">
        <ele>43.88</ele>
        <time>2014-11-16T13:22:54Z</time>
      </trkpt>
      <trkpt lat="49.2085" lon="-0.63394">
        <ele>44.36</ele>
        <time>2014-11-16T13:23:11Z</time>
      </trkpt>
      <trkpt lat="49.20866" lon="-0.63404">
        <ele>44.84</ele>
        <time>2014-11-16T13:23:28Z</time>
      </trkpt>
      <trkpt lat="49.20884" lon="-0.63412">
        <ele>45.8</ele>
        <time>2014-11-16T13:23:46Z</time>
      </trkpt>
      <trkpt lat="49.20892" lon="-0.6341">
        <ele>46.28</ele>
        <time>2014-11-16T13:23:53Z</time>
      </trkpt>
      <trkpt lat="49.20908" lon="-0.63409">
        <ele>47.24</ele>
        <time>2014-11-16T13:24:02Z</time>
      </trkpt>
      <trkpt lat="49.20923" lon="-0.63404">
        <ele>49.16</ele>
        <time>2014-11-16T13:24:17Z</time>
      </trkpt>
      <trkpt lat="49.20925" lon="-0.63403">
        <ele>49.16</ele>
        <time>2014-11-16T13:24:20Z</time>
      </trkpt>
      <trkpt lat="49.2093" lon="-0.634">
        <ele>49.65</ele>
        <time>2014-11-16T13:24:24Z</time>
      </trkpt>
      <trkpt lat="49.20947" lon="-0.63402">
        <ele>51.57</ele>
        <time>2014-11-16T13:24:39Z</time>
      </trkpt>
      <trkpt lat="49.20962" lon="-0.63391">
        <ele>52.53</ele>
        <time>2014-11-16T13:24:54Z</time>
      </trkpt>
      <trkpt lat="49.2098" lon="-0.63373">
        <ele>52.53</ele>
        <time>2014-11-16T13:25:11Z</time>
      </trkpt>
      <trkpt lat="49.20981" lon="-0.63372">
        <ele>52.53</ele>
        <time>2014-11-16T13:25:12Z</time>
      </trkpt>
      <trkpt lat="49.2099" lon="-0.63351">
        <ele>52.05</ele>
        <time>2014-11-16T13:25:25Z</time>
      </trkpt>
      <trkpt lat="49.21001" lon="-0.6333">
        <ele>52.53</ele>
        <time>2014-11-16T13:25:39Z</time>
      </trkpt>
      <trkpt lat="49.21011" lon="-0.63311">
        <ele>52.05</ele>
        <time>2014-11-16T13:25:53Z</time>
      </trkpt>
      <trkpt lat="49.21019" lon="-0.63294">
        <ele>52.05</ele>
        <time>2014-11-16T13:26:05Z</time>
      </trkpt>
      <trkpt lat="49.2102" lon="-0.63292">
        <ele>51.57</ele>
        <time>2014-11-16T13:26:08Z</time>
      </trkpt>
      <trkpt lat="49.21021" lon="-0.63289">
        <ele>52.05</ele>
        <time>2014-11-16T13:26:10Z</time>
      </trkpt>
      <trkpt lat="49.21034" lon="-0.63262">
        <ele>51.57</ele>
        <time>2014-11-16T13:26:26Z</time>
      </trkpt>
      <trkpt lat="49.2104" lon="-0.63242">
        <ele>51.57</ele>
        <time>2014-11-16T13:26:39Z</time>
      </trkpt>
      <trkpt lat="49.21044" lon="-0.63227">
        <ele>51.57</ele>
        <time>2014-11-16T13:26:50Z</time>
      </trkpt>
      <trkpt lat="49.2105" lon="-0.63193">
        <ele>50.61</ele>
        <time>2014-11-16T13:27:09Z</time>
      </trkpt>
      <trkpt lat="49.21052" lon="-0.63169">
        <ele>50.61</ele>
        <time>2014-11-16T13:27:21Z</time>
      </trkpt>
      <trkpt lat="49.21052" lon="-0.63149">
        <ele>50.13</ele>
        <time>2014-11-16T13:27:34Z</time>
      </trkpt>
      <trkpt lat="49.21052" lon="-0.63147">
        <ele>50.13</ele>
        <time>2014-11-16T13:27:35Z</time>
      </trkpt>
      <trkpt lat="49.21051" lon="-0.6312">
        <ele>49.65</ele>
        <time>2014-11-16T13:27:49Z</time>
      </trkpt>
      <trkpt lat="49.2105" lon="-0.63112">
        <ele>49.65</ele>
        <time>2014-11-16T13:27:53Z</time>
      </trkpt>
      <trkpt lat="49.21049" lon="-0.63109">
        <ele>49.65</ele>
        <time>2014-11-16T13:27:55Z</time>
      </trkpt>
      <trkpt lat="49.21049" lon="-0.63079">
        <ele>49.65</ele>
        <time>2014-11-16T13:28:10Z</time>
      </trkpt>
      <trkpt lat="49.21052" lon="-0.6306">
        <ele>49.65</ele>
        <time>2014-11-16T13:28:20Z</time>
      </trkpt>
      <trkpt lat="49.21055" lon="-0.63052">
        <ele>49.65</ele>
        <time>2014-11-16T13:28:26Z</time>
      </trkpt>
      <trkpt lat="49.21057" lon="-0.63039">
        <ele>49.65</ele>
        <time>2014-11-16T13:28:32Z</time>
      </trkpt>
      <trkpt lat="49.21065" lon="-0.63015">
        <ele>49.16</ele>
        <time>2014-11-16T13:28:46Z</time>
      </trkpt>
      <trkpt lat="49.21061" lon="-0.63006">
        <ele>49.16</ele>
        <time>2014-11-16T13:28:53Z</time>
      </trkpt>
      <trkpt lat="49.21057" lon="-0.63002">
        <ele>48.68</ele>
        <time>2014-11-16T13:28:57Z</time>
      </trkpt>
      <trkpt lat="49.21038" lon="-0.62991">
        <ele>47.72</ele>
        <time>2014-11-16T13:29:13Z</time>
      </trkpt>
      <trkpt lat="49.21021" lon="-0.62989">
        <ele>46.76</ele>
        <time>2014-11-16T13:29:25Z</time>
      </trkpt>
      <trkpt lat="49.21021" lon="-0.62984">
        <ele>46.28</ele>
        <time>2014-11-16T13:29:28Z</time>
      </trkpt>
      <trkpt lat="49.21018" lon="-0.62979">
        <ele>45.8</ele>
        <time>2014-11-16T13:29:32Z</time>
      </trkpt>
      <trkpt lat="49.21006" lon="-0.62964">
        <ele>43.4</ele>
        <time>2014-11-16T13:29:46Z</time>
      </trkpt>
      <trkpt lat="49.20996" lon="-0.62944">
        <ele>40.99</ele>
        <time>2014-11-16T13:30:00Z</time>
      </trkpt>
      <trkpt lat="49.20982" lon="-0.62928">
        <ele>40.03</ele>
        <time>2014-11-16T13:30:11Z</time>
      </trkpt>
      <trkpt lat="49.20971" lon="-0.62922">
        <ele>39.55</ele>
        <time>2014-11-16T13:30:23Z</time>
      </trkpt>
      <trkpt lat="49.20969" lon="-0.62921">
        <ele>40.03</ele>
        <time>2014-11-16T13:30:25Z</time>
      </trkpt>
      <trkpt lat="49.20962" lon="-0.62918">
        <ele>40.03</ele>
        <time>2014-11-16T13:30:31Z</time>
      </trkpt>
      <trkpt lat="49.20944" lon="-0.62911">
        <ele>39.55</ele>
        <time>2014-11-16T13:30:45Z</time>
      </trkpt>
      <trkpt lat="49.20941" lon="-0.6291">
        <ele>39.55</ele>
        <time>2014-11-16T13:30:47Z</time>
      </trkpt>
      <trkpt lat="49.20924" lon="-0.62908">
        <ele>39.55</ele>
        <time>2014-11-16T13:31:02Z</time>
      </trkpt>
      <trkpt lat="49.20905" lon="-0.62901">
        <ele>39.55</ele>
        <time>2014-11-16T13:31:17Z</time>
      </trkpt>
      <trkpt lat="49.20886" lon="-0.62888">
        <ele>39.55</ele>
        <time>2014-11-16T13:31:32Z</time>
      </trkpt>
      <trkpt lat="49.20884" lon="-0.62887">
        <ele>39.55</ele>
        <time>2014-11-16T13:31:33Z</time>
      </trkpt>
      <trkpt lat="49.2088" lon="-0.62884">
        <ele>39.55</ele>
        <time>2014-11-16T13:31:37Z</time>
      </trkpt>
      <trkpt lat="49.20862" lon="-0.62871">
        <ele>39.07</ele>
        <time>2014-11-16T13:31:54Z</time>
      </trkpt>
      <trkpt lat="49.20843" lon="-0.62859">
        <ele>39.55</ele>
        <time>2014-11-16T13:32:08Z</time>
      </trkpt>
      <trkpt lat="49.20833" lon="-0.62858">
        <ele>39.55</ele>
        <time>2014-11-16T13:32:18Z</time>
      </trkpt>
      <trkpt lat="49.20831" lon="-0.6286">
        <ele>39.55</ele>
        <time>2014-11-16T13:32:20Z</time>
      </trkpt>
      <trkpt lat="49.20823" lon="-0.6287">
        <ele>40.03</ele>
        <time>2014-11-16T13:32:27Z</time>
      </trkpt>
      <trkpt lat="49.20811" lon="-0.62883">
        <ele>40.51</ele>
        <time>2014-11-16T13:32:38Z</time>
      </trkpt>
      <trkpt lat="49.20804" lon="-0.62892">
        <ele>40.51</ele>
        <time>2014-11-16T13:32:47Z</time>
      </trkpt>
      <trkpt lat="49.20786" lon="-0.62909">
        <ele>40.51</ele>
        <time>2014-11-16T13:33:02Z</time>
      </trkpt>
      <trkpt lat="49.20767" lon="-0.62924">
        <ele>40.99</ele>
        <time>2014-11-16T13:33:18Z</time>
      </trkpt>
      <trkpt lat="49.20741" lon="-0.62941">
        <ele>40.99</ele>
        <time>2014-11-16T13:33:37Z</time>
      </trkpt>
      <trkpt lat="49.20716" lon="-0.62958">
        <ele>41.95</ele>
        <time>2014-11-16T13:33:57Z</time>
      </trkpt>
      <trkpt lat="49.20692" lon="-0.62971">
        <ele>42.44</ele>
        <time>2014-11-16T13:34:14Z</time>
      </trkpt>
      <trkpt lat="49.20675" lon="-0.62984">
        <ele>42.92</ele>
        <time>2014-11-16T13:34:29Z</time>
      </trkpt>
      <trkpt lat="49.20651" lon="-0.62996">
        <ele>42.92</ele>
        <time>2014-11-16T13:34:46Z</time>
      </trkpt>
      <trkpt lat="49.20629" lon="-0.6301">
        <ele>43.88</ele>
        <time>2014-11-16T13:35:03Z</time>
      </trkpt>
      <trkpt lat="49.2062" lon="-0.63015">
        <ele>43.4</ele>
        <time>2014-11-16T13:35:11Z</time>
      </trkpt>
      <trkpt lat="49.20595" lon="-0.63026">
        <ele>43.88</ele>
        <time>2014-11-16T13:35:29Z</time>
      </trkpt>
      <trkpt lat="49.20575" lon="-0.63018">
        <ele>44.84</ele>
        <time>2014-11-16T13:35:43Z</time>
      </trkpt>
      <trkpt lat="49.20552" lon="-0.62996">
        <ele>46.76</ele>
        <time>2014-11-16T13:36:03Z</time>
      </trkpt>
      <trkpt lat="49.20533" lon="-0.62987">
        <ele>47.72</ele>
        <time>2014-11-16T13:36:19Z</time>
      </trkpt>
      <trkpt lat="49.20513" lon="-0.62978">
        <ele>49.16</ele>
        <time>2014-11-16T13:36:35Z</time>
      </trkpt>
      <trkpt lat="49.20499" lon="-0.6297">
        <ele>50.13</ele>
        <time>2014-11-16T13:36:48Z</time>
      </trkpt>
      <trkpt lat="49.20485" lon="-0.62968">
        <ele>50.61</ele>
        <time>2014-11-16T13:37:01Z</time>
      </trkpt>
      <trkpt lat="49.20475" lon="-0.62962">
        <ele>51.09</ele>
        <time>2014-11-16T13:37:10Z</time>
      </trkpt>
      <trkpt lat="49.20473" lon="-0.62961">
        <ele>51.57</ele>
        <time>2014-11-16T13:37:12Z</time>
      </trkpt>
      <trkpt lat="49.20457" lon="-0.62958">
        <ele>51.57</ele>
        <time>2014-11-16T13:37:28Z</time>
      </trkpt>
      <trkpt lat="49.20432" lon="-0.62958">
        <ele>51.57</ele>
        <time>2014-11-16T13:37:43Z</time>
      </trkpt>
      <trkpt lat="49.20416" lon="-0.62953">
        <ele>51.09</ele>
        <time>2014-11-16T13:37:57Z</time>
      </trkpt>
      <trkpt lat="49.20398" lon="-0.62956">
        <ele>50.13</ele>
        <time>2014-11-16T13:38:13Z</time>
      </trkpt>
      <trkpt lat="49.20376" lon="-0.62958">
        <ele>48.68</ele>
        <time>2014-11-16T13:38:31Z</time>
      </trkpt>
      <trkpt lat="49.20351" lon="-0.6296">
        <ele>46.28</ele>
        <time>2014-11-16T13:38:49Z</time>
      </trkpt>
      <trkpt lat="49.20332" lon="-0.62963">
        <ele>45.32</ele>
        <time>2014-11-16T13:39:03Z</time>
      </trkpt>
      <trkpt lat="49.20317" lon="-0.62966">
        <ele>44.36</ele>
        <time>2014-11-16T13:39:17Z</time>
      </trkpt>
      <trkpt lat="49.20306" lon="-0.62964">
        <ele>43.88</ele>
        <time>2014-11-16T13:39:32Z</time>
      </trkpt>
      <trkpt lat="49.20306" lon="-0.62961">
        <ele>43.88</ele>
        <time>2014-11-16T13:39:52Z</time>
      </trkpt>
      <trkpt lat="49.20306" lon="-0.6296">
        <ele>43.4</ele>
        <time>2014-11-16T13:40:09Z</time>
      </trkpt>
      <trkpt lat="49.20303" lon="-0.6296">
        <ele>43.4</ele>
        <time>2014-11-16T13:40:24Z</time>
      </trkpt>
      <trkpt lat="49.20297" lon="-0.62959">
        <ele>43.4</ele>
        <time>2014-11-16T13:40:34Z</time>
      </trkpt>
      <trkpt lat="49.20294" lon="-0.62959">
        <ele>43.4</ele>
        <time>2014-11-16T13:40:37Z</time>
      </trkpt>
      <trkpt lat="49.20279" lon="-0.62952">
        <ele>43.4</ele>
        <time>2014-11-16T13:40:53Z</time>
      </trkpt>
      <trkpt lat="49.20275" lon="-0.62951">
        <ele>43.4</ele>
        <time>2014-11-16T13:40:57Z</time>
      </trkpt>
      <trkpt lat="49.20261" lon="-0.62942">
        <ele>42.92</ele>
        <time>2014-11-16T13:41:09Z</time>
      </trkpt>
      <trkpt lat="49.20244" lon="-0.62935">
        <ele>42.44</ele>
        <time>2014-11-16T13:41:21Z</time>
      </trkpt>
      <trkpt lat="49.20233" lon="-0.62932">
        <ele>42.44</ele>
        <time>2014-11-16T13:41:28Z</time>
      </trkpt>
      <trkpt lat="49.20217" lon="-0.62929">
        <ele>42.44</ele>
        <time>2014-11-16T13:41:40Z</time>
      </trkpt>
      <trkpt lat="49.20199" lon="-0.62922">
        <ele>41.95</ele>
        <time>2014-11-16T13:41:56Z</time>
      </trkpt>
      <trkpt lat="49.20185" lon="-0.6291">
        <ele>41.95</ele>
        <time>2014-11-16T13:42:09Z</time>
      </trkpt>
      <trkpt lat="49.20184" lon="-0.62909">
        <ele>41.95</ele>
        <time>2014-11-16T13:42:10Z</time>
      </trkpt>
      <trkpt lat="49.20174" lon="-0.62901">
        <ele>41.95</ele>
        <time>2014-11-16T13:42:18Z</time>
      </trkpt>
      <trkpt lat="49.2017" lon="-0.62896">
        <ele>41.95</ele>
        <time>2014-11-16T13:42:22Z</time>
      </trkpt>
      <trkpt lat="49.20153" lon="-0.62883">
        <ele>41.47</ele>
        <time>2014-11-16T13:42:35Z</time>
      </trkpt>
      <trkpt lat="49.20149" lon="-0.62882">
        <ele>41.95</ele>
        <time>2014-11-16T13:42:38Z</time>
      </trkpt>
      <trkpt lat="49.20135" lon="-0.62875">
        <ele>41.47</ele>
        <time>2014-11-16T13:42:48Z</time>
      </trkpt>
      <trkpt lat="49.20132" lon="-0.62873">
        <ele>41.95</ele>
        <time>2014-11-16T13:42:51Z</time>
      </trkpt>
      <trkpt lat="49.20127" lon="-0.62872">
        <ele>41.95</ele>
        <time>2014-11-16T13:42:58Z</time>
      </trkpt>
      <trkpt lat="49.20123" lon="-0.62869">
        <ele>41.47</ele>
        <time>2014-11-16T13:43:03Z</time>
      </trkpt>
      <trkpt lat="49.20106" lon="-0.62861">
        <ele>41.95</ele>
        <time>2014-11-16T13:43:19Z</time>
      </trkpt>
      <trkpt lat="49.20082" lon="-0.62849">
        <ele>42.44</ele>
        <time>2014-11-16T13:43:38Z</time>
      </trkpt>
      <trkpt lat="49.20064" lon="-0.62836">
        <ele>43.4</ele>
        <time>2014-11-16T13:43:52Z</time>
      </trkpt>
      <trkpt lat="49.20044" lon="-0.62818">
        <ele>44.84</ele>
        <time>2014-11-16T13:44:10Z</time>
      </trkpt>
      <trkpt lat="49.20025" lon="-0.62802">
        <ele>45.8</ele>
        <time>2014-11-16T13:44:25Z</time>
      </trkpt>
      <trkpt lat="49.19999" lon="-0.62786">
        <ele>46.76</ele>
        <time>2014-11-16T13:44:42Z</time>
      </trkpt>
      <trkpt lat="49.19983" lon="-0.62773">
        <ele>46.76</ele>
        <time>2014-11-16T13:44:56Z</time>
      </trkpt>
      <trkpt lat="49.19966" lon="-0.62765">
        <ele>46.28</ele>
        <time>2014-11-16T13:45:10Z</time>
      </trkpt>
      <trkpt lat="49.19941" lon="-0.6276">
        <ele>45.32</ele>
        <time>2014-11-16T13:45:25Z</time>
      </trkpt>
      <trkpt lat="49.19921" lon="-0.62753">
        <ele>43.88</ele>
        <time>2014-11-16T13:45:39Z</time>
      </trkpt>
      <trkpt lat="49.19916" lon="-0.62737">
        <ele>44.84</ele>
        <time>2014-11-16T13:45:47Z</time>
      </trkpt>
      <trkpt lat="49.19915" lon="-0.6271">
        <ele>46.28</ele>
        <time>2014-11-16T13:45:59Z</time>
      </trkpt>
      <trkpt lat="49.19913" lon="-0.62693">
        <ele>47.72</ele>
        <time>2014-11-16T13:46:11Z</time>
      </trkpt>
      <trkpt lat="49.19913" lon="-0.62684">
        <ele>48.2</ele>
        <time>2014-11-16T13:46:15Z</time>
      </trkpt>
      <trkpt lat="49.19916" lon="-0.62639">
        <ele>50.61</ele>
        <time>2014-11-16T13:46:33Z</time>
      </trkpt>
      <trkpt lat="49.19917" lon="-0.62614">
        <ele>51.57</ele>
        <time>2014-11-16T13:46:46Z</time>
      </trkpt>
      <trkpt lat="49.19917" lon="-0.62591">
        <ele>53.01</ele>
        <time>2014-11-16T13:46:59Z</time>
      </trkpt>
      <trkpt lat="49.19917" lon="-0.62565">
        <ele>53.49</ele>
        <time>2014-11-16T13:47:12Z</time>
      </trkpt>
      <trkpt lat="49.19917" lon="-0.62562">
        <ele>53.49</ele>
        <time>2014-11-16T13:47:13Z</time>
      </trkpt>
      <trkpt lat="49.19916" lon="-0.62552">
        <ele>53.49</ele>
        <time>2014-11-16T13:47:18Z</time>
      </trkpt>
      <trkpt lat="49.19917" lon="-0.62522">
        <ele>54.45</ele>
        <time>2014-11-16T13:47:31Z</time>
      </trkpt>
      <trkpt lat="49.19923" lon="-0.62493">
        <ele>55.41</ele>
        <time>2014-11-16T13:47:46Z</time>
      </trkpt>
      <trkpt lat="49.19927" lon="-0.62463">
        <ele>56.37</ele>
        <time>2014-11-16T13:48:01Z</time>
      </trkpt>
      <trkpt lat="49.19924" lon="-0.62438">
        <ele>57.34</ele>
        <time>2014-11-16T13:48:14Z</time>
      </trkpt>
      <trkpt lat="49.19924" lon="-0.62435">
        <ele>57.34</ele>
        <time>2014-11-16T13:48:15Z</time>
      </trkpt>
      <trkpt lat="49.19924" lon="-0.62419">
        <ele>57.82</ele>
        <time>2014-11-16T13:48:22Z</time>
      </trkpt>
      <trkpt lat="49.19925" lon="-0.6241">
        <ele>57.82</ele>
        <time>2014-11-16T13:48:26Z</time>
      </trkpt>
      <trkpt lat="49.19927" lon="-0.62394">
        <ele>58.3</ele>
        <time>2014-11-16T13:48:33Z</time>
      </trkpt>
      <trkpt lat="49.19929" lon="-0.62388">
        <ele>58.78</ele>
        <time>2014-11-16T13:48:36Z</time>
      </trkpt>
      <trkpt lat="49.1993" lon="-0.6238">
        <ele>58.78</ele>
        <time>2014-11-16T13:48:40Z</time>
      </trkpt>
      <trkpt lat="49.19932" lon="-0.62372">
        <ele>59.26</ele>
        <time>2014-11-16T13:48:44Z</time>
      </trkpt>
      <trkpt lat="49.19933" lon="-0.62362">
        <ele>59.74</ele>
        <time>2014-11-16T13:48:49Z</time>
      </trkpt>
      <trkpt lat="49.19934" lon="-0.62354">
        <ele>60.22</ele>
        <time>2014-11-16T13:48:53Z</time>
      </trkpt>
      <trkpt lat="49.1994" lon="-0.62324">
        <ele>62.14</ele>
        <time>2014-11-16T13:49:07Z</time>
      </trkpt>
      <trkpt lat="49.19942" lon="-0.62314">
        <ele>61.66</ele>
        <time>2014-11-16T13:49:12Z</time>
      </trkpt>
      <trkpt lat="49.19943" lon="-0.6231">
        <ele>61.66</ele>
        <time>2014-11-16T13:49:14Z</time>
      </trkpt>
      <trkpt lat="49.19944" lon="-0.62303">
        <ele>61.66</ele>
        <time>2014-11-16T13:49:18Z</time>
      </trkpt>
      <trkpt lat="49.19947" lon="-0.62275">
        <ele>62.14</ele>
        <time>2014-11-16T13:49:32Z</time>
      </trkpt>
      <trkpt lat="49.19949" lon="-0.62254">
        <ele>62.14</ele>
        <time>2014-11-16T13:49:42Z</time>
      </trkpt>
      <trkpt lat="49.19949" lon="-0.62242">
        <ele>61.66</ele>
        <time>2014-11-16T13:49:48Z</time>
      </trkpt>
      <trkpt lat="49.19947" lon="-0.62206">
        <ele>61.66</ele>
        <time>2014-11-16T13:50:05Z</time>
      </trkpt>
      <trkpt lat="49.19948" lon="-0.62171">
        <ele>61.66</ele>
        <time>2014-11-16T13:50:21Z</time>
      </trkpt>
      <trkpt lat="49.19943" lon="-0.62129">
        <ele>61.18</ele>
        <time>2014-11-16T13:50:41Z</time>
      </trkpt>
      <trkpt lat="49.19942" lon="-0.62124">
        <ele>61.18</ele>
        <time>2014-11-16T13:50:44Z</time>
      </trkpt>
      <trkpt lat="49.19942" lon="-0.6212">
        <ele>61.18</ele>
        <time>2014-11-16T13:50:59Z</time>
      </trkpt>
      <trkpt lat="49.19942" lon="-0.6212">
        <ele>61.18</ele>
        <time>2014-11-16T13:51:22Z</time>
      </trkpt>
      <trkpt lat="49.19942" lon="-0.6212">
        <ele>61.18</ele>
        <time>2014-11-16T13:51:44Z</time>
      </trkpt>
      <trkpt lat="49.19942" lon="-0.62121">
        <ele>61.18</ele>
        <time>2014-11-16T13:51:54Z</time>
      </trkpt>
      <trkpt lat="49.19939" lon="-0.62117">
        <ele>61.18</ele>
        <time>2014-11-16T13:51:58Z</time>
      </trkpt>
      <trkpt lat="49.19927" lon="-0.62091">
        <ele>61.66</ele>
        <time>2014-11-16T13:52:14Z</time>
      </trkpt>
      <trkpt lat="49.19918" lon="-0.62067">
        <ele>62.14</ele>
        <time>2014-11-16T13:52:27Z</time>
      </trkpt>
      <trkpt lat="49.19917" lon="-0.62063">
        <ele>62.14</ele>
        <time>2014-11-16T13:52:30Z</time>
      </trkpt>
      <trkpt lat="49.19912" lon="-0.62042">
        <ele>63.1</ele>
        <time>2014-11-16T13:52:42Z</time>
      </trkpt>
      <trkpt lat="49.19908" lon="-0.6203">
        <ele>63.1</ele>
        <time>2014-11-16T13:52:48Z</time>
      </trkpt>
      <trkpt lat="49.19904" lon="-0.62013">
        <ele>63.58</ele>
        <time>2014-11-16T13:52:59Z</time>
      </trkpt>
      <trkpt lat="49.19899" lon="-0.61989">
        <ele>64.07</ele>
        <time>2014-11-16T13:53:13Z</time>
      </trkpt>
      <trkpt lat="49.19895" lon="-0.61963">
        <ele>64.55</ele>
        <time>2014-11-16T13:53:26Z</time>
      </trkpt>
      <trkpt lat="49.19891" lon="-0.61938">
        <ele>64.55</ele>
        <time>2014-11-16T13:53:38Z</time>
      </trkpt>
      <trkpt lat="49.19889" lon="-0.61923">
        <ele>65.03</ele>
        <time>2014-11-16T13:53:45Z</time>
      </trkpt>
      <trkpt lat="49.19887" lon="-0.61914">
        <ele>65.03</ele>
        <time>2014-11-16T13:53:49Z</time>
      </trkpt>
      <trkpt lat="49.19884" lon="-0.61886">
        <ele>65.51</ele>
        <time>2014-11-16T13:54:03Z</time>
      </trkpt>
      <trkpt lat="49.19881" lon="-0.61863">
        <ele>65.99</ele>
        <time>2014-11-16T13:54:17Z</time>
      </trkpt>
      <trkpt lat="49.19876" lon="-0.61841">
        <ele>66.47</ele>
        <time>2014-11-16T13:54:29Z</time>
      </trkpt>
      <trkpt lat="49.19867" lon="-0.61809">
        <ele>66.95</ele>
        <time>2014-11-16T13:54:44Z</time>
      </trkpt>
      <trkpt lat="49.19863" lon="-0.61799">
        <ele>66.95</ele>
        <time>2014-11-16T13:54:54Z</time>
      </trkpt>
      <trkpt lat="49.19862" lon="-0.61793">
        <ele>66.95</ele>
        <time>2014-11-16T13:54:58Z</time>
      </trkpt>
      <trkpt lat="49.19855" lon="-0.61774">
        <ele>67.91</ele>
        <time>2014-11-16T13:55:10Z</time>
      </trkpt>
      <trkpt lat="49.19848" lon="-0.61755">
        <ele>67.91</ele>
        <time>2014-11-16T13:55:21Z</time>
      </trkpt>
      <trkpt lat="49.19845" lon="-0.61742">
        <ele>68.39</ele>
        <time>2014-11-16T13:55:27Z</time>
      </trkpt>
      <trkpt lat="49.1984" lon="-0.6173">
        <ele>68.39</ele>
        <time>2014-11-16T13:55:37Z</time>
      </trkpt>
      <trkpt lat="49.19832" lon="-0.61704">
        <ele>68.87</ele>
        <time>2014-11-16T13:55:51Z</time>
      </trkpt>
      <trkpt lat="49.19822" lon="-0.61676">
        <ele>68.87</ele>
        <time>2014-11-16T13:56:04Z</time>
      </trkpt>
      <trkpt lat="49.1982" lon="-0.61671">
        <ele>69.35</ele>
        <time>2014-11-16T13:56:07Z</time>
      </trkpt>
      <trkpt lat="49.19818" lon="-0.61663">
        <ele>69.35</ele>
        <time>2014-11-16T13:56:11Z</time>
      </trkpt>
      <trkpt lat="49.19811" lon="-0.61642">
        <ele>69.35</ele>
        <time>2014-11-16T13:56:23Z</time>
      </trkpt>
      <trkpt lat="49.19805" lon="-0.61619">
        <ele>69.83</ele>
        <time>2014-11-16T13:56:33Z</time>
      </trkpt>
      <trkpt lat="49.19799" lon="-0.61595">
        <ele>70.31</ele>
        <time>2014-11-16T13:56:47Z</time>
      </trkpt>
      <trkpt lat="49.19792" lon="-0.61575">
        <ele>70.79</ele>
        <time>2014-11-16T13:56:58Z</time>
      </trkpt>
      <trkpt lat="49.19785" lon="-0.61548">
        <ele>71.27</ele>
        <time>2014-11-16T13:57:12Z</time>
      </trkpt>
      <trkpt lat="49.19779" lon="-0.6153">
        <ele>71.76</ele>
        <time>2014-11-16T13:57:24Z</time>
      </trkpt>
      <trkpt lat="49.19772" lon="-0.61511">
        <ele>72.24</ele>
        <time>2014-11-16T13:57:36Z</time>
      </trkpt>
      <trkpt lat="49.19769" lon="-0.61498">
        <ele>72.72</ele>
        <time>2014-11-16T13:57:42Z</time>
      </trkpt>
      <trkpt lat="49.19764" lon="-0.61481">
        <ele>72.72</ele>
        <time>2014-11-16T13:57:49Z</time>
      </trkpt>
      <trkpt lat="49.19758" lon="-0.61457">
        <ele>73.68</ele>
        <time>2014-11-16T13:58:02Z</time>
      </trkpt>
      <trkpt lat="49.1975" lon="-0.61432">
        <ele>74.16</ele>
        <time>2014-11-16T13:58:14Z</time>
      </trkpt>
      <trkpt lat="49.19746" lon="-0.61416">
        <ele>74.16</ele>
        <time>2014-11-16T13:58:23Z</time>
      </trkpt>
      <trkpt lat="49.1974" lon="-0.61397">
        <ele>74.64</ele>
        <time>2014-11-16T13:58:35Z</time>
      </trkpt>
      <trkpt lat="49.19731" lon="-0.61368">
        <ele>75.6</ele>
        <time>2014-11-16T13:58:51Z</time>
      </trkpt>
      <trkpt lat="49.19724" lon="-0.61351">
        <ele>75.6</ele>
        <time>2014-11-16T13:58:59Z</time>
      </trkpt>
      <trkpt lat="49.19717" lon="-0.61326">
        <ele>76.56</ele>
        <time>2014-11-16T13:59:11Z</time>
      </trkpt>
      <trkpt lat="49.19707" lon="-0.61295">
        <ele>77.04</ele>
        <time>2014-11-16T13:59:26Z</time>
      </trkpt>
      <trkpt lat="49.19698" lon="-0.61258">
        <ele>78</ele>
        <time>2014-11-16T13:59:42Z</time>
      </trkpt>
      <trkpt lat="49.19691" lon="-0.61235">
        <ele>78.97</ele>
        <time>2014-11-16T13:59:54Z</time>
      </trkpt>
      <trkpt lat="49.19686" lon="-0.61221">
        <ele>78.97</ele>
        <time>2014-11-16T14:00:01Z</time>
      </trkpt>
      <trkpt lat="49.19683" lon="-0.61207">
        <ele>79.45</ele>
        <time>2014-11-16T14:00:07Z</time>
      </trkpt>
      <trkpt lat="49.19675" lon="-0.61175">
        <ele>79.93</ele>
        <time>2014-11-16T14:00:21Z</time>
      </trkpt>
      <trkpt lat="49.19672" lon="-0.61167">
        <ele>79.93</ele>
        <time>2014-11-16T14:00:25Z</time>
      </trkpt>
      <trkpt lat="49.19663" lon="-0.61133">
        <ele>80.89</ele>
        <time>2014-11-16T14:00:41Z</time>
      </trkpt>
      <trkpt lat="49.19662" lon="-0.61129">
        <ele>81.37</ele>
        <time>2014-11-16T14:00:43Z</time>
      </trkpt>
      <trkpt lat="49.19658" lon="-0.61113">
        <ele>81.37</ele>
        <time>2014-11-16T14:00:50Z</time>
      </trkpt>
      <trkpt lat="49.19649" lon="-0.61085">
        <ele>82.33</ele>
        <time>2014-11-16T14:01:04Z</time>
      </trkpt>
      <trkpt lat="49.19648" lon="-0.61083">
        <ele>82.33</ele>
        <time>2014-11-16T14:01:05Z</time>
      </trkpt>
      <trkpt lat="49.19643" lon="-0.61059">
        <ele>82.81</ele>
        <time>2014-11-16T14:01:18Z</time>
      </trkpt>
      <trkpt lat="49.19639" lon="-0.6103">
        <ele>83.77</ele>
        <time>2014-11-16T14:01:30Z</time>
      </trkpt>
      <trkpt lat="49.19633" lon="-0.61001">
        <ele>84.73</ele>
        <time>2014-11-16T14:01:43Z</time>
      </trkpt>
      <trkpt lat="49.1963" lon="-0.60986">
        <ele>85.21</ele>
        <time>2014-11-16T14:01:49Z</time>
      </trkpt>
      <trkpt lat="49.19628" lon="-0.60982">
        <ele>85.21</ele>
        <time>2014-11-16T14:01:51Z</time>
      </trkpt>
      <trkpt lat="49.19623" lon="-0.60954">
        <ele>85.69</ele>
        <time>2014-11-16T14:02:03Z</time>
      </trkpt>
      <trkpt lat="49.19615" lon="-0.60925">
        <ele>86.66</ele>
        <time>2014-11-16T14:02:17Z</time>
      </trkpt>
      <trkpt lat="49.19608" lon="-0.60892">
        <ele>87.62</ele>
        <time>2014-11-16T14:02:32Z</time>
      </trkpt>
      <trkpt lat="49.19605" lon="-0.60865">
        <ele>89.06</ele>
        <time>2014-11-16T14:02:45Z</time>
      </trkpt>
      <trkpt lat="49.19604" lon="-0.60861">
        <ele>89.06</ele>
        <time>2014-11-16T14:02:48Z</time>
      </trkpt>
      <trkpt lat="49.19598" lon="-0.60834">
        <ele>90.98</ele>
        <time>2014-11-16T14:03:02Z</time>
      </trkpt>
      <trkpt lat="49.19599" lon="-0.60823">
        <ele>91.46</ele>
        <time>2014-11-16T14:03:09Z</time>
      </trkpt>
      <trkpt lat="49.19597" lon="-0.60812">
        <ele>91.46</ele>
        <time>2014-11-16T14:03:15Z</time>
      </trkpt>
      <trkpt lat="49.19593" lon="-0.60799">
        <ele>92.42</ele>
        <time>2014-11-16T14:03:24Z</time>
      </trkpt>
      <trkpt lat="49.19591" lon="-0.60796">
        <ele>92.42</ele>
        <time>2014-11-16T14:03:26Z</time>
      </trkpt>
      <trkpt lat="49.1959" lon="-0.60788">
        <ele>92.42</ele>
        <time>2014-11-16T14:03:30Z</time>
      </trkpt>
      <trkpt lat="49.19589" lon="-0.60783">
        <ele>92.42</ele>
        <time>2014-11-16T14:03:32Z</time>
      </trkpt>
      <trkpt lat="49.19587" lon="-0.60759">
        <ele>93.39</ele>
        <time>2014-11-16T14:03:44Z</time>
      </trkpt>
      <trkpt lat="49.19588" lon="-0.60752">
        <ele>93.39</ele>
        <time>2014-11-16T14:03:47Z</time>
      </trkpt>
      <trkpt lat="49.19588" lon="-0.60738">
        <ele>93.87</ele>
        <time>2014-11-16T14:03:55Z</time>
      </trkpt>
      <trkpt lat="49.19585" lon="-0.60731">
        <ele>93.87</ele>
        <time>2014-11-16T14:03:59Z</time>
      </trkpt>
      <trkpt lat="49.19581" lon="-0.60707">
        <ele>94.83</ele>
        <time>2014-11-16T14:04:11Z</time>
      </trkpt>
      <trkpt lat="49.1958" lon="-0.60701">
        <ele>94.83</ele>
        <time>2014-11-16T14:04:14Z</time>
      </trkpt>
      <trkpt lat="49.19585" lon="-0.60666">
        <ele>95.79</ele>
        <time>2014-11-16T14:04:29Z</time>
      </trkpt>
      <trkpt lat="49.196" lon="-0.60653">
        <ele>96.75</ele>
        <time>2014-11-16T14:04:41Z</time>
      </trkpt>
      <trkpt lat="49.19604" lon="-0.60638">
        <ele>96.75</ele>
        <time>2014-11-16T14:04:49Z</time>
      </trkpt>
      <trkpt lat="49.19605" lon="-0.60612">
        <ele>97.23</ele>
        <time>2014-11-16T14:05:02Z</time>
      </trkpt>
      <trkpt lat="49.19604" lon="-0.60577">
        <ele>97.71</ele>
        <time>2014-11-16T14:05:20Z</time>
      </trkpt>
      <trkpt lat="49.19605" lon="-0.6054">
        <ele>98.19</ele>
        <time>2014-11-16T14:05:34Z</time>
      </trkpt>
      <trkpt lat="49.19603" lon="-0.60514">
        <ele>98.67</ele>
        <time>2014-11-16T14:05:47Z</time>
      </trkpt>
      <trkpt lat="49.19601" lon="-0.60503">
        <ele>99.15</ele>
        <time>2014-11-16T14:05:52Z</time>
      </trkpt>
      <trkpt lat="49.19598" lon="-0.60477">
        <ele>99.15</ele>
        <time>2014-11-16T14:06:03Z</time>
      </trkpt>
      <trkpt lat="49.19596" lon="-0.6045">
        <ele>99.15</ele>
        <time>2014-11-16T14:06:16Z</time>
      </trkpt>
      <trkpt lat="49.19597" lon="-0.6043">
        <ele>99.15</ele>
        <time>2014-11-16T14:06:27Z</time>
      </trkpt>
      <trkpt lat="49.19598" lon="-0.60423">
        <ele>99.15</ele>
        <time>2014-11-16T14:06:30Z</time>
      </trkpt>
      <trkpt lat="49.19599" lon="-0.60386">
        <ele>99.15</ele>
        <time>2014-11-16T14:06:45Z</time>
      </trkpt>
      <trkpt lat="49.19596" lon="-0.60357">
        <ele>99.15</ele>
        <time>2014-11-16T14:06:59Z</time>
      </trkpt>
      <trkpt lat="49.19597" lon="-0.60345">
        <ele>99.15</ele>
        <time>2014-11-16T14:07:05Z</time>
      </trkpt>
      <trkpt lat="49.19593" lon="-0.60308">
        <ele>99.15</ele>
        <time>2014-11-16T14:07:19Z</time>
      </trkpt>
      <trkpt lat="49.19592" lon="-0.60304">
        <ele>99.15</ele>
        <time>2014-11-16T14:07:21Z</time>
      </trkpt>
      <trkpt lat="49.1959" lon="-0.60295">
        <ele>98.67</ele>
        <time>2014-11-16T14:07:25Z</time>
      </trkpt>
      <trkpt lat="49.19589" lon="-0.60291">
        <ele>98.67</ele>
        <time>2014-11-16T14:07:27Z</time>
      </trkpt>
      <trkpt lat="49.19588" lon="-0.60287">
        <ele>98.67</ele>
        <time>2014-11-16T14:07:29Z</time>
      </trkpt>
      <trkpt lat="49.19587" lon="-0.60256">
        <ele>98.67</ele>
        <time>2014-11-16T14:07:41Z</time>
      </trkpt>
      <trkpt lat="49.19587" lon="-0.60254">
        <ele>98.67</ele>
        <time>2014-11-16T14:07:42Z</time>
      </trkpt>
      <trkpt lat="49.19585" lon="-0.60234">
        <ele>99.15</ele>
        <time>2014-11-16T14:07:52Z</time>
      </trkpt>
      <trkpt lat="49.19586" lon="-0.6022">
        <ele>99.15</ele>
        <time>2014-11-16T14:08:00Z</time>
      </trkpt>
      <trkpt lat="49.19585" lon="-0.60206">
        <ele>99.15</ele>
        <time>2014-11-16T14:08:07Z</time>
      </trkpt>
      <trkpt lat="49.19589" lon="-0.60182">
        <ele>98.67</ele>
        <time>2014-11-16T14:08:21Z</time>
      </trkpt>
      <trkpt lat="49.19589" lon="-0.60181">
        <ele>98.67</ele>
        <time>2014-11-16T14:08:45Z</time>
      </trkpt>
      <trkpt lat="49.19591" lon="-0.6018">
        <ele>98.67</ele>
        <time>2014-11-16T14:09:07Z</time>
      </trkpt>
      <trkpt lat="49.19591" lon="-0.60176">
        <ele>98.67</ele>
        <time>2014-11-16T14:09:25Z</time>
      </trkpt>
      <trkpt lat="49.1959" lon="-0.60172">
        <ele>98.19</ele>
        <time>2014-11-16T14:09:43Z</time>
      </trkpt>
      <trkpt lat="49.19589" lon="-0.60171">
        <ele>98.67</ele>
        <time>2014-11-16T14:10:05Z</time>
      </trkpt>
      <trkpt lat="49.19589" lon="-0.60161">
        <ele>98.19</ele>
        <time>2014-11-16T14:10:19Z</time>
      </trkpt>
      <trkpt lat="49.19589" lon="-0.60146">
        <ele>98.19</ele>
        <time>2014-11-16T14:10:35Z</time>
      </trkpt>
      <trkpt lat="49.19588" lon="-0.60137">
        <ele>97.71</ele>
        <time>2014-11-16T14:10:48Z</time>
      </trkpt>
      <trkpt lat="49.19587" lon="-0.60133">
        <ele>97.71</ele>
        <time>2014-11-16T14:10:52Z</time>
      </trkpt>
      <trkpt lat="49.19586" lon="-0.60119">
        <ele>97.71</ele>
        <time>2014-11-16T14:11:02Z</time>
      </trkpt>
      <trkpt lat="49.19586" lon="-0.60113">
        <ele>97.71</ele>
        <time>2014-11-16T14:11:07Z</time>
      </trkpt>
      <trkpt lat="49.19587" lon="-0.60102">
        <ele>97.71</ele>
        <time>2014-11-16T14:11:20Z</time>
      </trkpt>
      <trkpt lat="49.19587" lon="-0.60096">
        <ele>97.71</ele>
        <time>2014-11-16T14:11:27Z</time>
      </trkpt>
      <trkpt lat="49.19587" lon="-0.60092">
        <ele>97.71</ele>
        <time>2014-11-16T14:11:29Z</time>
      </trkpt>
      <trkpt lat="49.19587" lon="-0.60089">
        <ele>97.71</ele>
        <time>2014-11-16T14:11:31Z</time>
      </trkpt>
      <trkpt lat="49.19587" lon="-0.60084">
        <ele>97.71</ele>
        <time>2014-11-16T14:11:35Z</time>
      </trkpt>
      <trkpt lat="49.19587" lon="-0.60075">
        <ele>97.71</ele>
        <time>2014-11-16T14:11:45Z</time>
      </trkpt>
      <trkpt lat="49.19586" lon="-0.60072">
        <ele>97.71</ele>
        <time>2014-11-16T14:11:48Z</time>
      </trkpt>
      <trkpt lat="49.19585" lon="-0.60065">
        <ele>97.71</ele>
        <time>2014-11-16T14:11:52Z</time>
      </trkpt>
      <trkpt lat="49.19583" lon="-0.60054">
        <ele>97.23</ele>
        <time>2014-11-16T14:11:59Z</time>
      </trkpt>
      <trkpt lat="49.19581" lon="-0.60045">
        <ele>97.23</ele>
        <time>2014-11-16T14:12:04Z</time>
      </trkpt>
      <trkpt lat="49.19579" lon="-0.60027">
        <ele>97.23</ele>
        <time>2014-11-16T14:12:15Z</time>
      </trkpt>
      <trkpt lat="49.19576" lon="-0.60001">
        <ele>97.23</ele>
        <time>2014-11-16T14:12:29Z</time>
      </trkpt>
      <trkpt lat="49.19571" lon="-0.59969">
        <ele>97.23</ele>
        <time>2014-11-16T14:12:44Z</time>
      </trkpt>
      <trkpt lat="49.19567" lon="-0.59951">
        <ele>97.23</ele>
        <time>2014-11-16T14:12:54Z</time>
      </trkpt>
      <trkpt lat="49.19562" lon="-0.59918">
        <ele>97.23</ele>
        <time>2014-11-16T14:13:10Z</time>
      </trkpt>
      <trkpt lat="49.19562" lon="-0.59914">
        <ele>97.23</ele>
        <time>2014-11-16T14:13:12Z</time>
      </trkpt>
      <trkpt lat="49.19556" lon="-0.59882">
        <ele>97.23</ele>
        <time>2014-11-16T14:13:29Z</time>
      </trkpt>
      <trkpt lat="49.1955" lon="-0.5985">
        <ele>97.71</ele>
        <time>2014-11-16T14:13:45Z</time>
      </trkpt>
      <trkpt lat="49.19543" lon="-0.59837">
        <ele>97.23</ele>
        <time>2014-11-16T14:13:59Z</time>
      </trkpt>
      <trkpt lat="49.19541" lon="-0.59832">
        <ele>97.23</ele>
        <time>2014-11-16T14:14:05Z</time>
      </trkpt>
      <trkpt lat="49.19533" lon="-0.59828">
        <ele>97.23</ele>
        <time>2014-11-16T14:14:12Z</time>
      </trkpt>
      <trkpt lat="49.19519" lon="-0.59812">
        <ele>97.23</ele>
        <time>2014-11-16T14:14:26Z</time>
      </trkpt>
      <trkpt lat="49.19503" lon="-0.59795">
        <ele>97.23</ele>
        <time>2014-11-16T14:14:40Z</time>
      </trkpt>
      <trkpt lat="49.19485" lon="-0.59775">
        <ele>97.23</ele>
        <time>2014-11-16T14:14:56Z</time>
      </trkpt>
      <trkpt lat="49.19473" lon="-0.59758">
        <ele>96.75</ele>
        <time>2014-11-16T14:15:08Z</time>
      </trkpt>
      <trkpt lat="49.19471" lon="-0.59755">
        <ele>98.19</ele>
        <time>2014-11-16T14:15:10Z</time>
      </trkpt>
      <trkpt lat="49.19453" lon="-0.59727">
        <ele>96.75</ele>
        <time>2014-11-16T14:15:26Z</time>
      </trkpt>
      <trkpt lat="49.1944" lon="-0.59702">
        <ele>96.75</ele>
        <time>2014-11-16T14:15:40Z</time>
      </trkpt>
      <trkpt lat="49.1943" lon="-0.59673">
        <ele>97.23</ele>
        <time>2014-11-16T14:15:53Z</time>
      </trkpt>
      <trkpt lat="49.19422" lon="-0.59652">
        <ele>97.23</ele>
        <time>2014-11-16T14:16:04Z</time>
      </trkpt>
      <trkpt lat="49.19408" lon="-0.59624">
        <ele>97.23</ele>
        <time>2014-11-16T14:16:20Z</time>
      </trkpt>
      <trkpt lat="49.19399" lon="-0.59604">
        <ele>97.23</ele>
        <time>2014-11-16T14:16:35Z</time>
      </trkpt>
      <trkpt lat="49.19398" lon="-0.59597">
        <ele>97.23</ele>
        <time>2014-11-16T14:16:47Z</time>
      </trkpt>
      <trkpt lat="49.19397" lon="-0.59592">
        <ele>97.23</ele>
        <time>2014-11-16T14:16:50Z</time>
      </trkpt>
      <trkpt lat="49.19389" lon="-0.59569">
        <ele>96.75</ele>
        <time>2014-11-16T14:17:05Z</time>
      </trkpt>
      <trkpt lat="49.19381" lon="-0.59541">
        <ele>96.75</ele>
        <time>2014-11-16T14:17:20Z</time>
      </trkpt>
      <trkpt lat="49.19372" lon="-0.59506">
        <ele>96.27</ele>
        <time>2014-11-16T14:17:37Z</time>
      </trkpt>
      <trkpt lat="49.19363" lon="-0.59478">
        <ele>95.79</ele>
        <time>2014-11-16T14:17:53Z</time>
      </trkpt>
      <trkpt lat="49.19359" lon="-0.59463">
        <ele>95.79</ele>
        <time>2014-11-16T14:18:04Z</time>
      </trkpt>
      <trkpt lat="49.19357" lon="-0.59456">
        <ele>95.79</ele>
        <time>2014-11-16T14:18:09Z</time>
      </trkpt>
      <trkpt lat="49.19354" lon="-0.5945">
        <ele>95.31</ele>
        <time>2014-11-16T14:18:13Z</time>
      </trkpt>
      <trkpt lat="49.19348" lon="-0.59419">
        <ele>95.31</ele>
        <time>2014-11-16T14:18:29Z</time>
      </trkpt>
      <trkpt lat="49.1934" lon="-0.59383">
        <ele>94.83</ele>
        <time>2014-11-16T14:18:47Z</time>
      </trkpt>
      <trkpt lat="49.19331" lon="-0.5935">
        <ele>94.83</ele>
        <time>2014-11-16T14:19:03Z</time>
      </trkpt>
      <trkpt lat="49.19324" lon="-0.59321">
        <ele>94.35</ele>
        <time>2014-11-16T14:19:18Z</time>
      </trkpt>
      <trkpt lat="49.19317" lon="-0.5929">
        <ele>93.87</ele>
        <time>2014-11-16T14:19:33Z</time>
      </trkpt>
      <trkpt lat="49.19309" lon="-0.5926">
        <ele>93.87</ele>
        <time>2014-11-16T14:19:49Z</time>
      </trkpt>
      <trkpt lat="49.19302" lon="-0.59232">
        <ele>93.39</ele>
        <time>2014-11-16T14:20:03Z</time>
      </trkpt>
      <trkpt lat="49.19296" lon="-0.59203">
        <ele>93.39</ele>
        <time>2014-11-16T14:20:15Z</time>
      </trkpt>
      <trkpt lat="49.19293" lon="-0.5918">
        <ele>93.39</ele>
        <time>2014-11-16T14:20:27Z</time>
      </trkpt>
      <trkpt lat="49.19293" lon="-0.59165">
        <ele>92.9</ele>
        <time>2014-11-16T14:20:35Z</time>
      </trkpt>
      <trkpt lat="49.19292" lon="-0.59147">
        <ele>92.9</ele>
        <time>2014-11-16T14:20:49Z</time>
      </trkpt>
      <trkpt lat="49.1929" lon="-0.59117">
        <ele>92.9</ele>
        <time>2014-11-16T14:21:05Z</time>
      </trkpt>
      <trkpt lat="49.19284" lon="-0.59088">
        <ele>92.9</ele>
        <time>2014-11-16T14:21:19Z</time>
      </trkpt>
      <trkpt lat="49.19279" lon="-0.59058">
        <ele>92.9</ele>
        <time>2014-11-16T14:21:33Z</time>
      </trkpt>
      <trkpt lat="49.19275" lon="-0.59038">
        <ele>92.9</ele>
        <time>2014-11-16T14:21:45Z</time>
      </trkpt>
      <trkpt lat="49.19272" lon="-0.59028">
        <ele>93.39</ele>
        <time>2014-11-16T14:21:51Z</time>
      </trkpt>
      <trkpt lat="49.19268" lon="-0.59015">
        <ele>93.39</ele>
        <time>2014-11-16T14:22:04Z</time>
      </trkpt>
      <trkpt lat="49.19259" lon="-0.58986">
        <ele>92.9</ele>
        <time>2014-11-16T14:22:21Z</time>
      </trkpt>
      <trkpt lat="49.19253" lon="-0.58953">
        <ele>93.87</ele>
        <time>2014-11-16T14:22:38Z</time>
      </trkpt>
      <trkpt lat="49.19251" lon="-0.58935">
        <ele>93.87</ele>
        <time>2014-11-16T14:22:49Z</time>
      </trkpt>
      <trkpt lat="49.19249" lon="-0.58922">
        <ele>93.87</ele>
        <time>2014-11-16T14:22:54Z</time>
      </trkpt>
      <trkpt lat="49.19244" lon="-0.58879">
        <ele>93.87</ele>
        <time>2014-11-16T14:23:13Z</time>
      </trkpt>
      <trkpt lat="49.19243" lon="-0.58872">
        <ele>94.35</ele>
        <time>2014-11-16T14:23:16Z</time>
      </trkpt>
      <trkpt lat="49.19241" lon="-0.58845">
        <ele>94.35</ele>
        <time>2014-11-16T14:23:31Z</time>
      </trkpt>
      <trkpt lat="49.19239" lon="-0.58814">
        <ele>94.35</ele>
        <time>2014-11-16T14:23:46Z</time>
      </trkpt>
      <trkpt lat="49.19236" lon="-0.58788">
        <ele>94.35</ele>
        <time>2014-11-16T14:23:58Z</time>
      </trkpt>
      <trkpt lat="49.19234" lon="-0.58756">
        <ele>94.35</ele>
        <time>2014-11-16T14:24:14Z</time>
      </trkpt>
      <trkpt lat="49.19234" lon="-0.58741">
        <ele>94.35</ele>
        <time>2014-11-16T14:24:22Z</time>
      </trkpt>
      <trkpt lat="49.19231" lon="-0.58716">
        <ele>94.35</ele>
        <time>2014-11-16T14:24:35Z</time>
      </trkpt>
      <trkpt lat="49.1923" lon="-0.58695">
        <ele>94.35</ele>
        <time>2014-11-16T14:24:46Z</time>
      </trkpt>
      <trkpt lat="49.19229" lon="-0.58686">
        <ele>94.35</ele>
        <time>2014-11-16T14:24:50Z</time>
      </trkpt>
      <trkpt lat="49.19227" lon="-0.5866">
        <ele>93.87</ele>
        <time>2014-11-16T14:25:03Z</time>
      </trkpt>
      <trkpt lat="49.19224" lon="-0.58633">
        <ele>93.39</ele>
        <time>2014-11-16T14:25:17Z</time>
      </trkpt>
      <trkpt lat="49.19223" lon="-0.58604">
        <ele>92.9</ele>
        <time>2014-11-16T14:25:31Z</time>
      </trkpt>
      <trkpt lat="49.19219" lon="-0.58576">
        <ele>92.42</ele>
        <time>2014-11-16T14:25:46Z</time>
      </trkpt>
      <trkpt lat="49.19216" lon="-0.58543">
        <ele>92.42</ele>
        <time>2014-11-16T14:26:02Z</time>
      </trkpt>
      <trkpt lat="49.19215" lon="-0.58508">
        <ele>91.94</ele>
        <time>2014-11-16T14:26:19Z</time>
      </trkpt>
      <trkpt lat="49.19211" lon="-0.5848">
        <ele>91.94</ele>
        <time>2014-11-16T14:26:34Z</time>
      </trkpt>
      <trkpt lat="49.19209" lon="-0.58465">
        <ele>91.46</ele>
        <time>2014-11-16T14:26:42Z</time>
      </trkpt>
      <trkpt lat="49.19204" lon="-0.58432">
        <ele>90.02</ele>
        <time>2014-11-16T14:26:59Z</time>
      </trkpt>
      <trkpt lat="49.19204" lon="-0.58402">
        <ele>89.54</ele>
        <time>2014-11-16T14:27:13Z</time>
      </trkpt>
      <trkpt lat="49.19202" lon="-0.58364">
        <ele>89.06</ele>
        <time>2014-11-16T14:27:30Z</time>
      </trkpt>
      <trkpt lat="49.19201" lon="-0.58329">
        <ele>88.58</ele>
        <time>2014-11-16T14:27:48Z</time>
      </trkpt>
      <trkpt lat="49.192" lon="-0.58303">
        <ele>88.1</ele>
        <time>2014-11-16T14:28:02Z</time>
      </trkpt>
      <trkpt lat="49.19199" lon="-0.58274">
        <ele>87.62</ele>
        <time>2014-11-16T14:28:17Z</time>
      </trkpt>
      <trkpt lat="49.19198" lon="-0.58269">
        <ele>88.1</ele>
        <time>2014-11-16T14:28:20Z</time>
      </trkpt>
      <trkpt lat="49.192" lon="-0.58252">
        <ele>88.1</ele>
        <time>2014-11-16T14:28:28Z</time>
      </trkpt>
      <trkpt lat="49.19201" lon="-0.58241">
        <ele>87.62</ele>
        <time>2014-11-16T14:28:33Z</time>
      </trkpt>
      <trkpt lat="49.19202" lon="-0.58232">
        <ele>87.62</ele>
        <time>2014-11-16T14:28:37Z</time>
      </trkpt>
      <trkpt lat="49.19203" lon="-0.58196">
        <ele>87.62</ele>
        <time>2014-11-16T14:28:54Z</time>
      </trkpt>
      <trkpt lat="49.19203" lon="-0.58183">
        <ele>87.14</ele>
        <time>2014-11-16T14:29:01Z</time>
      </trkpt>
      <trkpt lat="49.19203" lon="-0.58171">
        <ele>87.14</ele>
        <time>2014-11-16T14:29:14Z</time>
      </trkpt>
      <trkpt lat="49.19203" lon="-0.5817">
        <ele>87.14</ele>
        <time>2014-11-16T14:29:31Z</time>
      </trkpt>
      <trkpt lat="49.19205" lon="-0.58168">
        <ele>87.14</ele>
        <time>2014-11-16T14:29:39Z</time>
      </trkpt>
      <trkpt lat="49.19215" lon="-0.58163">
        <ele>87.14</ele>
        <time>2014-11-16T14:29:48Z</time>
      </trkpt>
      <trkpt lat="49.19225" lon="-0.58161">
        <ele>87.14</ele>
        <time>2014-11-16T14:29:56Z</time>
      </trkpt>
      <trkpt lat="49.19241" lon="-0.58155">
        <ele>86.66</ele>
        <time>2014-11-16T14:30:08Z</time>
      </trkpt>
      <trkpt lat="49.19261" lon="-0.5815">
        <ele>86.18</ele>
        <time>2014-11-16T14:30:23Z</time>
      </trkpt>
      <trkpt lat="49.19285" lon="-0.5814">
        <ele>85.69</ele>
        <time>2014-11-16T14:30:39Z</time>
      </trkpt>
      <trkpt lat="49.19306" lon="-0.58133">
        <ele>84.73</ele>
        <time>2014-11-16T14:30:54Z</time>
      </trkpt>
      <trkpt lat="49.19327" lon="-0.58124">
        <ele>84.25</ele>
        <time>2014-11-16T14:31:10Z</time>
      </trkpt>
      <trkpt lat="49.1935" lon="-0.58117">
        <ele>83.77</ele>
        <time>2014-11-16T14:31:26Z</time>
      </trkpt>
      <trkpt lat="49.19371" lon="-0.58109">
        <ele>83.29</ele>
        <time>2014-11-16T14:31:43Z</time>
      </trkpt>
      <trkpt lat="49.19392" lon="-0.58096">
        <ele>83.29</ele>
        <time>2014-11-16T14:32:00Z</time>
      </trkpt>
      <trkpt lat="49.19411" lon="-0.5808">
        <ele>82.81</ele>
        <time>2014-11-16T14:32:15Z</time>
      </trkpt>
      <trkpt lat="49.19417" lon="-0.58075">
        <ele>82.33</ele>
        <time>2014-11-16T14:32:20Z</time>
      </trkpt>
      <trkpt lat="49.19421" lon="-0.5807">
        <ele>82.33</ele>
        <time>2014-11-16T14:32:23Z</time>
      </trkpt>
      <trkpt lat="49.1943" lon="-0.58064">
        <ele>81.85</ele>
        <time>2014-11-16T14:32:30Z</time>
      </trkpt>
      <trkpt lat="49.19452" lon="-0.58047">
        <ele>81.85</ele>
        <time>2014-11-16T14:32:47Z</time>
      </trkpt>
      <trkpt lat="49.19467" lon="-0.58033">
        <ele>81.37</ele>
        <time>2014-11-16T14:33:00Z</time>
      </trkpt>
      <trkpt lat="49.19469" lon="-0.58033">
        <ele>81.37</ele>
        <time>2014-11-16T14:33:01Z</time>
      </trkpt>
      <trkpt lat="49.19475" lon="-0.58027">
        <ele>80.89</ele>
        <time>2014-11-16T14:33:06Z</time>
      </trkpt>
      <trkpt lat="49.19481" lon="-0.58022">
        <ele>80.89</ele>
        <time>2014-11-16T14:33:21Z</time>
      </trkpt>
      <trkpt lat="49.19483" lon="-0.58022">
        <ele>80.89</ele>
        <time>2014-11-16T14:33:26Z</time>
      </trkpt>
      <trkpt lat="49.19485" lon="-0.58026">
        <ele>80.89</ele>
        <time>2014-11-16T14:33:29Z</time>
      </trkpt>
      <trkpt lat="49.19489" lon="-0.58038">
        <ele>81.37</ele>
        <time>2014-11-16T14:33:35Z</time>
      </trkpt>
      <trkpt lat="49.19499" lon="-0.58076">
        <ele>81.85</ele>
        <time>2014-11-16T14:33:54Z</time>
      </trkpt>
      <trkpt lat="49.19506" lon="-0.58104">
        <ele>82.81</ele>
        <time>2014-11-16T14:34:11Z</time>
      </trkpt>
      <trkpt lat="49.19513" lon="-0.58131">
        <ele>83.77</ele>
        <time>2014-11-16T14:34:27Z</time>
      </trkpt>
      <trkpt lat="49.19516" lon="-0.5815">
        <ele>84.73</ele>
        <time>2014-11-16T14:34:38Z</time>
      </trkpt>
      <trkpt lat="49.19518" lon="-0.58155">
        <ele>84.73</ele>
        <time>2014-11-16T14:34:41Z</time>
      </trkpt>
      <trkpt lat="49.19526" lon="-0.58184">
        <ele>85.69</ele>
        <time>2014-11-16T14:34:59Z</time>
      </trkpt>
      <trkpt lat="49.19536" lon="-0.58224">
        <ele>86.66</ele>
        <time>2014-11-16T14:35:19Z</time>
      </trkpt>
      <trkpt lat="49.19544" lon="-0.58254">
        <ele>87.14</ele>
        <time>2014-11-16T14:35:35Z</time>
      </trkpt>
      <trkpt lat="49.19555" lon="-0.58295">
        <ele>87.62</ele>
        <time>2014-11-16T14:35:55Z</time>
      </trkpt>
      <trkpt lat="49.19564" lon="-0.58328">
        <ele>88.1</ele>
        <time>2014-11-16T14:36:12Z</time>
      </trkpt>
      <trkpt lat="49.19572" lon="-0.58358">
        <ele>88.1</ele>
        <time>2014-11-16T14:36:28Z</time>
      </trkpt>
      <trkpt lat="49.19582" lon="-0.58397">
        <ele>88.58</ele>
        <time>2014-11-16T14:36:47Z</time>
      </trkpt>
      <trkpt lat="49.19591" lon="-0.58428">
        <ele>88.1</ele>
        <time>2014-11-16T14:37:04Z</time>
      </trkpt>
      <trkpt lat="49.196" lon="-0.58457">
        <ele>88.1</ele>
        <time>2014-11-16T14:37:19Z</time>
      </trkpt>
      <trkpt lat="49.19606" lon="-0.58462">
        <ele>87.62</ele>
        <time>2014-11-16T14:37:25Z</time>
      </trkpt>
      <trkpt lat="49.19628" lon="-0.58454">
        <ele>87.62</ele>
        <time>2014-11-16T14:37:41Z</time>
      </trkpt>
      <trkpt lat="49.19649" lon="-0.58437">
        <ele>87.14</ele>
        <time>2014-11-16T14:37:58Z</time>
      </trkpt>
      <trkpt lat="49.19665" lon="-0.58426">
        <ele>87.14</ele>
        <time>2014-11-16T14:38:11Z</time>
      </trkpt>
      <trkpt lat="49.19684" lon="-0.5841">
        <ele>86.66</ele>
        <time>2014-11-16T14:38:26Z</time>
      </trkpt>
      <trkpt lat="49.1969" lon="-0.58405">
        <ele>87.14</ele>
        <time>2014-11-16T14:38:31Z</time>
      </trkpt>
      <trkpt lat="49.19696" lon="-0.58402">
        <ele>87.14</ele>
        <time>2014-11-16T14:38:36Z</time>
      </trkpt>
      <trkpt lat="49.19718" lon="-0.58386">
        <ele>86.66</ele>
        <time>2014-11-16T14:38:53Z</time>
      </trkpt>
      <trkpt lat="49.19737" lon="-0.58374">
        <ele>86.66</ele>
        <time>2014-11-16T14:39:08Z</time>
      </trkpt>
      <trkpt lat="49.19761" lon="-0.58359">
        <ele>86.18</ele>
        <time>2014-11-16T14:39:26Z</time>
      </trkpt>
      <trkpt lat="49.19779" lon="-0.58349">
        <ele>85.69</ele>
        <time>2014-11-16T14:39:40Z</time>
      </trkpt>
      <trkpt lat="49.19801" lon="-0.58331">
        <ele>85.21</ele>
        <time>2014-11-16T14:39:56Z</time>
      </trkpt>
      <trkpt lat="49.19805" lon="-0.58326">
        <ele>85.21</ele>
        <time>2014-11-16T14:40:00Z</time>
      </trkpt>
      <trkpt lat="49.19813" lon="-0.58319">
        <ele>85.21</ele>
        <time>2014-11-16T14:40:07Z</time>
      </trkpt>
      <trkpt lat="49.19822" lon="-0.58312">
        <ele>84.73</ele>
        <time>2014-11-16T14:40:14Z</time>
      </trkpt>
      <trkpt lat="49.1984" lon="-0.58298">
        <ele>84.73</ele>
        <time>2014-11-16T14:40:29Z</time>
      </trkpt>
      <trkpt lat="49.19864" lon="-0.58281">
        <ele>84.25</ele>
        <time>2014-11-16T14:40:46Z</time>
      </trkpt>
      <trkpt lat="49.19883" lon="-0.58267">
        <ele>84.25</ele>
        <time>2014-11-16T14:41:02Z</time>
      </trkpt>
      <trkpt lat="49.19902" lon="-0.58254">
        <ele>83.77</ele>
        <time>2014-11-16T14:41:17Z</time>
      </trkpt>
      <trkpt lat="49.1992" lon="-0.5824">
        <ele>83.77</ele>
        <time>2014-11-16T14:41:31Z</time>
      </trkpt>
      <trkpt lat="49.19931" lon="-0.58231">
        <ele>83.77</ele>
        <time>2014-11-16T14:41:40Z</time>
      </trkpt>
      <trkpt lat="49.19949" lon="-0.5822">
        <ele>83.77</ele>
        <time>2014-11-16T14:41:55Z</time>
      </trkpt>
      <trkpt lat="49.19972" lon="-0.58202">
        <ele>83.77</ele>
        <time>2014-11-16T14:42:13Z</time>
      </trkpt>
      <trkpt lat="49.19992" lon="-0.5819">
        <ele>83.77</ele>
        <time>2014-11-16T14:42:29Z</time>
      </trkpt>
      <trkpt lat="49.20016" lon="-0.58173">
        <ele>83.29</ele>
        <time>2014-11-16T14:42:47Z</time>
      </trkpt>
      <trkpt lat="49.20038" lon="-0.58158">
        <ele>82.81</ele>
        <time>2014-11-16T14:43:04Z</time>
      </trkpt>
      <trkpt lat="49.20057" lon="-0.58146">
        <ele>82.33</ele>
        <time>2014-11-16T14:43:19Z</time>
      </trkpt>
      <trkpt lat="49.20078" lon="-0.58128">
        <ele>81.37</ele>
        <time>2014-11-16T14:43:35Z</time>
      </trkpt>
      <trkpt lat="49.20096" lon="-0.58115">
        <ele>80.89</ele>
        <time>2014-11-16T14:43:49Z</time>
      </trkpt>
      <trkpt lat="49.20117" lon="-0.58098">
        <ele>80.41</ele>
        <time>2014-11-16T14:44:06Z</time>
      </trkpt>
      <trkpt lat="49.2013" lon="-0.58089">
        <ele>79.93</ele>
        <time>2014-11-16T14:44:16Z</time>
      </trkpt>
      <trkpt lat="49.20137" lon="-0.58084">
        <ele>79.45</ele>
        <time>2014-11-16T14:44:22Z</time>
      </trkpt>
      <trkpt lat="49.20158" lon="-0.58068">
        <ele>79.93</ele>
        <time>2014-11-16T14:44:38Z</time>
      </trkpt>
      <trkpt lat="49.20178" lon="-0.58054">
        <ele>78.97</ele>
        <time>2014-11-16T14:44:54Z</time>
      </trkpt>
      <trkpt lat="49.20191" lon="-0.5805">
        <ele>78.97</ele>
        <time>2014-11-16T14:45:11Z</time>
      </trkpt>
      <trkpt lat="49.20192" lon="-0.58051">
        <ele>78.97</ele>
        <time>2014-11-16T14:45:22Z</time>
      </trkpt>
      <trkpt lat="49.20202" lon="-0.58062">
        <ele>78</ele>
        <time>2014-11-16T14:45:32Z</time>
      </trkpt>
      <trkpt lat="49.20206" lon="-0.5808">
        <ele>78</ele>
        <time>2014-11-16T14:45:41Z</time>
      </trkpt>
      <trkpt lat="49.20209" lon="-0.58093">
        <ele>77.52</ele>
        <time>2014-11-16T14:45:48Z</time>
      </trkpt>
      <trkpt lat="49.20216" lon="-0.58121">
        <ele>77.52</ele>
        <time>2014-11-16T14:46:02Z</time>
      </trkpt>
      <trkpt lat="49.20222" lon="-0.58137">
        <ele>77.04</ele>
        <time>2014-11-16T14:46:11Z</time>
      </trkpt>
      <trkpt lat="49.20226" lon="-0.58154">
        <ele>76.56</ele>
        <time>2014-11-16T14:46:20Z</time>
      </trkpt>
      <trkpt lat="49.20229" lon="-0.58166">
        <ele>76.56</ele>
        <time>2014-11-16T14:46:26Z</time>
      </trkpt>
      <trkpt lat="49.20238" lon="-0.58199">
        <ele>75.12</ele>
        <time>2014-11-16T14:46:43Z</time>
      </trkpt>
      <trkpt lat="49.20248" lon="-0.58228">
        <ele>74.16</ele>
        <time>2014-11-16T14:46:58Z</time>
      </trkpt>
      <trkpt lat="49.20259" lon="-0.58264">
        <ele>73.2</ele>
        <time>2014-11-16T14:47:16Z</time>
      </trkpt>
      <trkpt lat="49.20267" lon="-0.58299">
        <ele>72.24</ele>
        <time>2014-11-16T14:47:33Z</time>
      </trkpt>
      <trkpt lat="49.20273" lon="-0.58337">
        <ele>72.24</ele>
        <time>2014-11-16T14:47:50Z</time>
      </trkpt>
      <trkpt lat="49.20276" lon="-0.58371">
        <ele>71.76</ele>
        <time>2014-11-16T14:48:07Z</time>
      </trkpt>
      <trkpt lat="49.20283" lon="-0.58413">
        <ele>72.72</ele>
        <time>2014-11-16T14:48:27Z</time>
      </trkpt>
      <trkpt lat="49.20291" lon="-0.5845">
        <ele>73.2</ele>
        <time>2014-11-16T14:48:43Z</time>
      </trkpt>
      <trkpt lat="49.20298" lon="-0.58478">
        <ele>74.16</ele>
        <time>2014-11-16T14:48:58Z</time>
      </trkpt>
      <trkpt lat="49.20304" lon="-0.5851">
        <ele>75.12</ele>
        <time>2014-11-16T14:49:13Z</time>
      </trkpt>
      <trkpt lat="49.20313" lon="-0.58538">
        <ele>76.08</ele>
        <time>2014-11-16T14:49:27Z</time>
      </trkpt>
      <trkpt lat="49.20331" lon="-0.58552">
        <ele>77.52</ele>
        <time>2014-11-16T14:49:45Z</time>
      </trkpt>
      <trkpt lat="49.20334" lon="-0.58551">
        <ele>77.52</ele>
        <time>2014-11-16T14:49:47Z</time>
      </trkpt>
      <trkpt lat="49.20355" lon="-0.58531">
        <ele>78</ele>
        <time>2014-11-16T14:50:04Z</time>
      </trkpt>
      <trkpt lat="49.20375" lon="-0.58514">
        <ele>78</ele>
        <time>2014-11-16T14:50:18Z</time>
      </trkpt>
      <trkpt lat="49.20393" lon="-0.58502">
        <ele>78</ele>
        <time>2014-11-16T14:50:34Z</time>
      </trkpt>
      <trkpt lat="49.20395" lon="-0.58502">
        <ele>78</ele>
        <time>2014-11-16T14:50:35Z</time>
      </trkpt>
      <trkpt lat="49.2042" lon="-0.58506">
        <ele>78</ele>
        <time>2014-11-16T14:50:53Z</time>
      </trkpt>
      <trkpt lat="49.20438" lon="-0.58527">
        <ele>78.48</ele>
        <time>2014-11-16T14:51:09Z</time>
      </trkpt>
      <trkpt lat="49.20451" lon="-0.58544">
        <ele>78.97</ele>
        <time>2014-11-16T14:51:20Z</time>
      </trkpt>
      <trkpt lat="49.20459" lon="-0.58553">
        <ele>78.97</ele>
        <time>2014-11-16T14:51:27Z</time>
      </trkpt>
      <trkpt lat="49.20465" lon="-0.5856">
        <ele>78.97</ele>
        <time>2014-11-16T14:51:32Z</time>
      </trkpt>
      <trkpt lat="49.20487" lon="-0.58584">
        <ele>79.45</ele>
        <time>2014-11-16T14:51:52Z</time>
      </trkpt>
      <trkpt lat="49.20501" lon="-0.58599">
        <ele>79.45</ele>
        <time>2014-11-16T14:52:04Z</time>
      </trkpt>
      <trkpt lat="49.2051" lon="-0.58607">
        <ele>79.45</ele>
        <time>2014-11-16T14:52:12Z</time>
      </trkpt>
      <trkpt lat="49.20533" lon="-0.58632">
        <ele>79.45</ele>
        <time>2014-11-16T14:52:31Z</time>
      </trkpt>
      <trkpt lat="49.20551" lon="-0.58653">
        <ele>78.97</ele>
        <time>2014-11-16T14:52:48Z</time>
      </trkpt>
      <trkpt lat="49.20566" lon="-0.58674">
        <ele>78.48</ele>
        <time>2014-11-16T14:53:03Z</time>
      </trkpt>
      <trkpt lat="49.20582" lon="-0.58692">
        <ele>78</ele>
        <time>2014-11-16T14:53:17Z</time>
      </trkpt>
      <trkpt lat="49.20586" lon="-0.58696">
        <ele>77.52</ele>
        <time>2014-11-16T14:53:20Z</time>
      </trkpt>
      <trkpt lat="49.20592" lon="-0.58707">
        <ele>77.52</ele>
        <time>2014-11-16T14:53:35Z</time>
      </trkpt>
      <trkpt lat="49.20587" lon="-0.58714">
        <ele>77.52</ele>
        <time>2014-11-16T14:53:48Z</time>
      </trkpt>
      <trkpt lat="49.20587" lon="-0.58714">
        <ele>77.52</ele>
        <time>2014-11-16T14:53:49Z</time>
      </trkpt>
      <trkpt lat="49.20591" lon="-0.58718">
        <ele>77.04</ele>
        <time>2014-11-16T14:53:54Z</time>
      </trkpt>
      <trkpt lat="49.20596" lon="-0.58723">
        <ele>77.52</ele>
        <time>2014-11-16T14:53:58Z</time>
      </trkpt>
      <trkpt lat="49.20606" lon="-0.58746">
        <ele>77.04</ele>
        <time>2014-11-16T14:54:13Z</time>
      </trkpt>
      <trkpt lat="49.206" lon="-0.58753">
        <ele>77.52</ele>
        <time>2014-11-16T14:54:26Z</time>
      </trkpt>
      <trkpt lat="49.20605" lon="-0.5876">
        <ele>77.04</ele>
        <time>2014-11-16T14:54:43Z</time>
      </trkpt>
      <trkpt lat="49.20609" lon="-0.58783">
        <ele>76.56</ele>
        <time>2014-11-16T14:54:57Z</time>
      </trkpt>
      <trkpt lat="49.20611" lon="-0.5881">
        <ele>77.04</ele>
        <time>2014-11-16T14:55:14Z</time>
      </trkpt>
      <trkpt lat="49.20612" lon="-0.58815">
        <ele>76.56</ele>
        <time>2014-11-16T14:55:17Z</time>
      </trkpt>
      <trkpt lat="49.20617" lon="-0.58829">
        <ele>76.08</ele>
        <time>2014-11-16T14:55:26Z</time>
      </trkpt>
      <trkpt lat="49.20623" lon="-0.58858">
        <ele>75.6</ele>
        <time>2014-11-16T14:55:44Z</time>
      </trkpt>
      <trkpt lat="49.20626" lon="-0.58882">
        <ele>75.12</ele>
        <time>2014-11-16T14:55:58Z</time>
      </trkpt>
      <trkpt lat="49.20627" lon="-0.58885">
        <ele>75.6</ele>
        <time>2014-11-16T14:56:00Z</time>
      </trkpt>
      <trkpt lat="49.20633" lon="-0.5892">
        <ele>75.12</ele>
        <time>2014-11-16T14:56:17Z</time>
      </trkpt>
      <trkpt lat="49.20639" lon="-0.58948">
        <ele>74.64</ele>
        <time>2014-11-16T14:56:32Z</time>
      </trkpt>
      <trkpt lat="49.20646" lon="-0.58972">
        <ele>74.16</ele>
        <time>2014-11-16T14:56:46Z</time>
      </trkpt>
      <trkpt lat="49.2065" lon="-0.58986">
        <ele>73.68</ele>
        <time>2014-11-16T14:56:54Z</time>
      </trkpt>
      <trkpt lat="49.20652" lon="-0.58996">
        <ele>74.16</ele>
        <time>2014-11-16T14:57:01Z</time>
      </trkpt>
      <trkpt lat="49.20651" lon="-0.58995">
        <ele>73.68</ele>
        <time>2014-11-16T14:57:04Z</time>
      </trkpt>
      <trkpt lat="49.20654" lon="-0.58986">
        <ele>73.68</ele>
        <time>2014-11-16T14:57:16Z</time>
      </trkpt>
      <trkpt lat="49.20666" lon="-0.58959">
        <ele>73.2</ele>
        <time>2014-11-16T14:57:33Z</time>
      </trkpt>
      <trkpt lat="49.20673" lon="-0.58938">
        <ele>73.2</ele>
        <time>2014-11-16T14:57:44Z</time>
      </trkpt>
      <trkpt lat="49.2068" lon="-0.58921">
        <ele>72.72</ele>
        <time>2014-11-16T14:57:53Z</time>
      </trkpt>
      <trkpt lat="49.20688" lon="-0.58894">
        <ele>72.24</ele>
        <time>2014-11-16T14:58:06Z</time>
      </trkpt>
      <trkpt lat="49.20694" lon="-0.58869">
        <ele>71.76</ele>
        <time>2014-11-16T14:58:19Z</time>
      </trkpt>
      <trkpt lat="49.20702" lon="-0.58846">
        <ele>71.27</ele>
        <time>2014-11-16T14:58:32Z</time>
      </trkpt>
      <trkpt lat="49.20714" lon="-0.58816">
        <ele>70.79</ele>
        <time>2014-11-16T14:58:47Z</time>
      </trkpt>
      <trkpt lat="49.20724" lon="-0.58793">
        <ele>70.31</ele>
        <time>2014-11-16T14:59:01Z</time>
      </trkpt>
      <trkpt lat="49.20737" lon="-0.58765">
        <ele>70.31</ele>
        <time>2014-11-16T14:59:17Z</time>
      </trkpt>
      <trkpt lat="49.20748" lon="-0.58741">
        <ele>69.83</ele>
        <time>2014-11-16T14:59:31Z</time>
      </trkpt>
      <trkpt lat="49.20757" lon="-0.58717">
        <ele>69.35</ele>
        <time>2014-11-16T14:59:44Z</time>
      </trkpt>
      <trkpt lat="49.20769" lon="-0.58691">
        <ele>69.35</ele>
        <time>2014-11-16T14:59:58Z</time>
      </trkpt>
      <trkpt lat="49.20785" lon="-0.58655">
        <ele>68.87</ele>
        <time>2014-11-16T15:00:18Z</time>
      </trkpt>
      <trkpt lat="49.20801" lon="-0.58628">
        <ele>68.39</ele>
        <time>2014-11-16T15:00:35Z</time>
      </trkpt>
      <trkpt lat="49.20816" lon="-0.58604">
        <ele>67.43</ele>
        <time>2014-11-16T15:00:50Z</time>
      </trkpt>
      <trkpt lat="49.20829" lon="-0.58582">
        <ele>66.95</ele>
        <time>2014-11-16T15:01:04Z</time>
      </trkpt>
      <trkpt lat="49.20844" lon="-0.58554">
        <ele>65.99</ele>
        <time>2014-11-16T15:01:19Z</time>
      </trkpt>
      <trkpt lat="49.2086" lon="-0.58536">
        <ele>65.03</ele>
        <time>2014-11-16T15:01:33Z</time>
      </trkpt>
      <trkpt lat="49.2088" lon="-0.58523">
        <ele>64.55</ele>
        <time>2014-11-16T15:01:48Z</time>
      </trkpt>
      <trkpt lat="49.20894" lon="-0.58509">
        <ele>64.07</ele>
        <time>2014-11-16T15:01:59Z</time>
      </trkpt>
      <trkpt lat="49.20903" lon="-0.58496">
        <ele>64.07</ele>
        <time>2014-11-16T15:02:09Z</time>
      </trkpt>
      <trkpt lat="49.20912" lon="-0.58485">
        <ele>63.58</ele>
        <time>2014-11-16T15:02:17Z</time>
      </trkpt>
      <trkpt lat="49.20914" lon="-0.58483">
        <ele>63.58</ele>
        <time>2014-11-16T15:02:19Z</time>
      </trkpt>
      <trkpt lat="49.20921" lon="-0.58476">
        <ele>63.58</ele>
        <time>2014-11-16T15:02:24Z</time>
      </trkpt>
      <trkpt lat="49.20938" lon="-0.58455">
        <ele>64.07</ele>
        <time>2014-11-16T15:02:40Z</time>
      </trkpt>
      <trkpt lat="49.20939" lon="-0.58454">
        <ele>63.1</ele>
        <time>2014-11-16T15:02:41Z</time>
      </trkpt>
      <trkpt lat="49.20945" lon="-0.58448">
        <ele>63.1</ele>
        <time>2014-11-16T15:02:46Z</time>
      </trkpt>
      <trkpt lat="49.20965" lon="-0.58426">
        <ele>62.62</ele>
        <time>2014-11-16T15:03:03Z</time>
      </trkpt>
      <trkpt lat="49.20982" lon="-0.58407">
        <ele>61.66</ele>
        <time>2014-11-16T15:03:18Z</time>
      </trkpt>
      <trkpt lat="49.21001" lon="-0.58378">
        <ele>61.66</ele>
        <time>2014-11-16T15:03:36Z</time>
      </trkpt>
      <trkpt lat="49.21005" lon="-0.58368">
        <ele>61.66</ele>
        <time>2014-11-16T15:03:41Z</time>
      </trkpt>
      <trkpt lat="49.2101" lon="-0.58363">
        <ele>61.66</ele>
        <time>2014-11-16T15:03:45Z</time>
      </trkpt>
      <trkpt lat="49.21029" lon="-0.5834">
        <ele>61.18</ele>
        <time>2014-11-16T15:04:01Z</time>
      </trkpt>
      <trkpt lat="49.21047" lon="-0.5832">
        <ele>60.22</ele>
        <time>2014-11-16T15:04:17Z</time>
      </trkpt>
      <trkpt lat="49.21052" lon="-0.58314">
        <ele>60.22</ele>
        <time>2014-11-16T15:04:23Z</time>
      </trkpt>
      <trkpt lat="49.21067" lon="-0.58312">
        <ele>59.74</ele>
        <time>2014-11-16T15:04:33Z</time>
      </trkpt>
      <trkpt lat="49.21074" lon="-0.58317">
        <ele>59.26</ele>
        <time>2014-11-16T15:04:38Z</time>
      </trkpt>
      <trkpt lat="49.21077" lon="-0.58321">
        <ele>58.78</ele>
        <time>2014-11-16T15:04:41Z</time>
      </trkpt>
      <trkpt lat="49.21098" lon="-0.5835">
        <ele>58.3</ele>
        <time>2014-11-16T15:05:00Z</time>
      </trkpt>
      <trkpt lat="49.21114" lon="-0.58379">
        <ele>56.86</ele>
        <time>2014-11-16T15:05:18Z</time>
      </trkpt>
      <trkpt lat="49.21127" lon="-0.584">
        <ele>56.86</ele>
        <time>2014-11-16T15:05:33Z</time>
      </trkpt>
      <trkpt lat="49.21129" lon="-0.58405">
        <ele>56.86</ele>
        <time>2014-11-16T15:05:49Z</time>
      </trkpt>
      <trkpt lat="49.2113" lon="-0.58405">
        <ele>56.37</ele>
        <time>2014-11-16T15:06:03Z</time>
      </trkpt>
      <trkpt lat="49.2113" lon="-0.58405">
        <ele>55.89</ele>
        <time>2014-11-16T15:06:16Z</time>
      </trkpt>
      <trkpt lat="49.2113" lon="-0.5841">
        <ele>55.89</ele>
        <time>2014-11-16T15:06:20Z</time>
      </trkpt>
      <trkpt lat="49.21142" lon="-0.58431">
        <ele>55.41</ele>
        <time>2014-11-16T15:06:35Z</time>
      </trkpt>
      <trkpt lat="49.21161" lon="-0.58455">
        <ele>54.93</ele>
        <time>2014-11-16T15:06:52Z</time>
      </trkpt>
      <trkpt lat="49.21176" lon="-0.58479">
        <ele>54.45</ele>
        <time>2014-11-16T15:07:08Z</time>
      </trkpt>
      <trkpt lat="49.21193" lon="-0.58504">
        <ele>54.45</ele>
        <time>2014-11-16T15:07:24Z</time>
      </trkpt>
      <trkpt lat="49.21208" lon="-0.5853">
        <ele>54.45</ele>
        <time>2014-11-16T15:07:41Z</time>
      </trkpt>
      <trkpt lat="49.21217" lon="-0.58541">
        <ele>54.45</ele>
        <time>2014-11-16T15:07:50Z</time>
      </trkpt>
      <trkpt lat="49.21223" lon="-0.58561">
        <ele>54.45</ele>
        <time>2014-11-16T15:08:02Z</time>
      </trkpt>
      <trkpt lat="49.21219" lon="-0.58589">
        <ele>54.45</ele>
        <time>2014-11-16T15:08:16Z</time>
      </trkpt>
      <trkpt lat="49.21211" lon="-0.58603">
        <ele>54.45</ele>
        <time>2014-11-16T15:08:26Z</time>
      </trkpt>
      <trkpt lat="49.21209" lon="-0.58605">
        <ele>54.45</ele>
        <time>2014-11-16T15:08:28Z</time>
      </trkpt>
      <trkpt lat="49.21194" lon="-0.58625">
        <ele>54.45</ele>
        <time>2014-11-16T15:08:42Z</time>
      </trkpt>
      <trkpt lat="49.21188" lon="-0.58634">
        <ele>54.45</ele>
        <time>2014-11-16T15:08:48Z</time>
      </trkpt>
      <trkpt lat="49.21172" lon="-0.58651">
        <ele>54.45</ele>
        <time>2014-11-16T15:09:04Z</time>
      </trkpt>
      <trkpt lat="49.21154" lon="-0.58675">
        <ele>54.45</ele>
        <time>2014-11-16T15:09:21Z</time>
      </trkpt>
      <trkpt lat="49.21137" lon="-0.58695">
        <ele>54.93</ele>
        <time>2014-11-16T15:09:34Z</time>
      </trkpt>
      <trkpt lat="49.21134" lon="-0.587">
        <ele>54.93</ele>
        <time>2014-11-16T15:09:38Z</time>
      </trkpt>
      <trkpt lat="49.21125" lon="-0.58713">
        <ele>54.93</ele>
        <time>2014-11-16T15:09:47Z</time>
      </trkpt>
      <trkpt lat="49.2112" lon="-0.58722">
        <ele>54.93</ele>
        <time>2014-11-16T15:09:53Z</time>
      </trkpt>
      <trkpt lat="49.21118" lon="-0.58725">
        <ele>54.93</ele>
        <time>2014-11-16T15:09:55Z</time>
      </trkpt>
      <trkpt lat="49.2111" lon="-0.58741">
        <ele>54.93</ele>
        <time>2014-11-16T15:10:04Z</time>
      </trkpt>
      <trkpt lat="49.21107" lon="-0.58753">
        <ele>55.41</ele>
        <time>2014-11-16T15:10:10Z</time>
      </trkpt>
      <trkpt lat="49.21107" lon="-0.58757">
        <ele>55.41</ele>
        <time>2014-11-16T15:10:12Z</time>
      </trkpt>
      <trkpt lat="49.21113" lon="-0.58793">
        <ele>55.41</ele>
        <time>2014-11-16T15:10:30Z</time>
      </trkpt>
      <trkpt lat="49.21123" lon="-0.58823">
        <ele>55.41</ele>
        <time>2014-11-16T15:10:47Z</time>
      </trkpt>
      <trkpt lat="49.21128" lon="-0.58855">
        <ele>55.89</ele>
        <time>2014-11-16T15:11:03Z</time>
      </trkpt>
      <trkpt lat="49.21132" lon="-0.5889">
        <ele>56.37</ele>
        <time>2014-11-16T15:11:19Z</time>
      </trkpt>
      <trkpt lat="49.21139" lon="-0.58921">
        <ele>56.86</ele>
        <time>2014-11-16T15:11:35Z</time>
      </trkpt>
      <trkpt lat="49.21145" lon="-0.5896">
        <ele>57.34</ele>
        <time>2014-11-16T15:11:52Z</time>
      </trkpt>
      <trkpt lat="49.2115" lon="-0.58992">
        <ele>57.34</ele>
        <time>2014-11-16T15:12:07Z</time>
      </trkpt>
      <trkpt lat="49.21155" lon="-0.5902">
        <ele>58.3</ele>
        <time>2014-11-16T15:12:21Z</time>
      </trkpt>
      <trkpt lat="49.21157" lon="-0.59025">
        <ele>58.3</ele>
        <time>2014-11-16T15:12:24Z</time>
      </trkpt>
      <trkpt lat="49.21159" lon="-0.59062">
        <ele>58.78</ele>
        <time>2014-11-16T15:12:41Z</time>
      </trkpt>
      <trkpt lat="49.2116" lon="-0.59092">
        <ele>58.3</ele>
        <time>2014-11-16T15:12:55Z</time>
      </trkpt>
      <trkpt lat="49.21164" lon="-0.59125">
        <ele>58.78</ele>
        <time>2014-11-16T15:13:11Z</time>
      </trkpt>
      <trkpt lat="49.21165" lon="-0.59131">
        <ele>59.26</ele>
        <time>2014-11-16T15:13:14Z</time>
      </trkpt>
      <trkpt lat="49.21166" lon="-0.59139">
        <ele>58.78</ele>
        <time>2014-11-16T15:13:19Z</time>
      </trkpt>
      <trkpt lat="49.21168" lon="-0.59142">
        <ele>58.78</ele>
        <time>2014-11-16T15:13:22Z</time>
      </trkpt>
      <trkpt lat="49.2117" lon="-0.59155">
        <ele>58.78</ele>
        <time>2014-11-16T15:13:31Z</time>
      </trkpt>
      <trkpt lat="49.2117" lon="-0.5916">
        <ele>58.78</ele>
        <time>2014-11-16T15:13:34Z</time>
      </trkpt>
      <trkpt lat="49.21173" lon="-0.59172">
        <ele>59.26</ele>
        <time>2014-11-16T15:13:41Z</time>
      </trkpt>
      <trkpt lat="49.21174" lon="-0.59181">
        <ele>59.26</ele>
        <time>2014-11-16T15:13:45Z</time>
      </trkpt>
      <trkpt lat="49.21178" lon="-0.59198">
        <ele>59.26</ele>
        <time>2014-11-16T15:13:54Z</time>
      </trkpt>
      <trkpt lat="49.2118" lon="-0.59212">
        <ele>59.74</ele>
        <time>2014-11-16T15:14:01Z</time>
      </trkpt>
      <trkpt lat="49.2118" lon="-0.59221">
        <ele>59.74</ele>
        <time>2014-11-16T15:14:07Z</time>
      </trkpt>
      <trkpt lat="49.21182" lon="-0.59238">
        <ele>59.26</ele>
        <time>2014-11-16T15:14:16Z</time>
      </trkpt>
      <trkpt lat="49.21183" lon="-0.59249">
        <ele>58.78</ele>
        <time>2014-11-16T15:14:21Z</time>
      </trkpt>
      <trkpt lat="49.21184" lon="-0.59258">
        <ele>58.78</ele>
        <time>2014-11-16T15:14:26Z</time>
      </trkpt>
      <trkpt lat="49.21184" lon="-0.59263">
        <ele>58.78</ele>
        <time>2014-11-16T15:14:29Z</time>
      </trkpt>
      <trkpt lat="49.21184" lon="-0.59284">
        <ele>58.3</ele>
        <time>2014-11-16T15:14:43Z</time>
      </trkpt>
      <trkpt lat="49.21178" lon="-0.59285">
        <ele>58.3</ele>
        <time>2014-11-16T15:15:00Z</time>
      </trkpt>
      <trkpt lat="49.21177" lon="-0.59286">
        <ele>58.3</ele>
        <time>2014-11-16T15:15:14Z</time>
      </trkpt>
      <trkpt lat="49.21167" lon="-0.59289">
        <ele>58.78</ele>
        <time>2014-11-16T15:15:22Z</time>
      </trkpt>
      <trkpt lat="49.21148" lon="-0.59296">
        <ele>58.78</ele>
        <time>2014-11-16T15:15:36Z</time>
      </trkpt>
      <trkpt lat="49.21132" lon="-0.59305">
        <ele>58.78</ele>
        <time>2014-11-16T15:15:49Z</time>
      </trkpt>
      <trkpt lat="49.21126" lon="-0.59308">
        <ele>59.26</ele>
        <time>2014-11-16T15:15:53Z</time>
      </trkpt>
      <trkpt lat="49.21114" lon="-0.59318">
        <ele>59.26</ele>
        <time>2014-11-16T15:16:05Z</time>
      </trkpt>
      <trkpt lat="49.21111" lon="-0.59344">
        <ele>59.74</ele>
        <time>2014-11-16T15:16:18Z</time>
      </trkpt>
      <trkpt lat="49.21109" lon="-0.59367">
        <ele>60.22</ele>
        <time>2014-11-16T15:16:30Z</time>
      </trkpt>
      <trkpt lat="49.21109" lon="-0.59378">
        <ele>60.7</ele>
        <time>2014-11-16T15:16:36Z</time>
      </trkpt>
      <trkpt lat="49.21109" lon="-0.59416">
        <ele>61.18</ele>
        <time>2014-11-16T15:16:54Z</time>
      </trkpt>
      <trkpt lat="49.21108" lon="-0.59448">
        <ele>61.66</ele>
        <time>2014-11-16T15:17:09Z</time>
      </trkpt>
      <trkpt lat="49.21106" lon="-0.5948">
        <ele>61.66</ele>
        <time>2014-11-16T15:17:25Z</time>
      </trkpt>
      <trkpt lat="49.2111" lon="-0.59516">
        <ele>62.14</ele>
        <time>2014-11-16T15:17:40Z</time>
      </trkpt>
      <trkpt lat="49.21111" lon="-0.5955">
        <ele>62.14</ele>
        <time>2014-11-16T15:17:59Z</time>
      </trkpt>
      <trkpt lat="49.21111" lon="-0.59575">
        <ele>62.14</ele>
        <time>2014-11-16T15:18:10Z</time>
      </trkpt>
      <trkpt lat="49.2111" lon="-0.59579">
        <ele>62.14</ele>
        <time>2014-11-16T15:18:12Z</time>
      </trkpt>
      <trkpt lat="49.21103" lon="-0.59596">
        <ele>62.62</ele>
        <time>2014-11-16T15:18:27Z</time>
      </trkpt>
      <trkpt lat="49.21101" lon="-0.59596">
        <ele>62.14</ele>
        <time>2014-11-16T15:18:50Z</time>
      </trkpt>
      <trkpt lat="49.21099" lon="-0.59593">
        <ele>62.14</ele>
        <time>2014-11-16T15:19:11Z</time>
      </trkpt>
      <trkpt lat="49.21099" lon="-0.59593">
        <ele>62.14</ele>
        <time>2014-11-16T15:19:36Z</time>
      </trkpt>
      <trkpt lat="49.21103" lon="-0.59599">
        <ele>62.14</ele>
        <time>2014-11-16T15:19:50Z</time>
      </trkpt>
      <trkpt lat="49.21104" lon="-0.5961">
        <ele>62.14</ele>
        <time>2014-11-16T15:19:58Z</time>
      </trkpt>
      <trkpt lat="49.21108" lon="-0.5964">
        <ele>62.14</ele>
        <time>2014-11-16T15:20:15Z</time>
      </trkpt>
      <trkpt lat="49.2111" lon="-0.59647">
        <ele>62.62</ele>
        <time>2014-11-16T15:20:20Z</time>
      </trkpt>
      <trkpt lat="49.21106" lon="-0.59669">
        <ele>62.62</ele>
        <time>2014-11-16T15:20:34Z</time>
      </trkpt>
      <trkpt lat="49.21106" lon="-0.59687">
        <ele>62.62</ele>
        <time>2014-11-16T15:20:46Z</time>
      </trkpt>
      <trkpt lat="49.21116" lon="-0.59717">
        <ele>62.62</ele>
        <time>2014-11-16T15:21:01Z</time>
      </trkpt>
      <trkpt lat="49.21124" lon="-0.59737">
        <ele>62.62</ele>
        <time>2014-11-16T15:21:13Z</time>
      </trkpt>
      <trkpt lat="49.21135" lon="-0.5976">
        <ele>62.62</ele>
        <time>2014-11-16T15:21:27Z</time>
      </trkpt>
      <trkpt lat="49.2115" lon="-0.59794">
        <ele>62.62</ele>
        <time>2014-11-16T15:21:46Z</time>
      </trkpt>
      <trkpt lat="49.21164" lon="-0.59826">
        <ele>62.14</ele>
        <time>2014-11-16T15:22:05Z</time>
      </trkpt>
      <trkpt lat="49.2117" lon="-0.59838">
        <ele>62.14</ele>
        <time>2014-11-16T15:22:12Z</time>
      </trkpt>
      <trkpt lat="49.21175" lon="-0.5985">
        <ele>61.66</ele>
        <time>2014-11-16T15:22:19Z</time>
      </trkpt>
      <trkpt lat="49.21188" lon="-0.59884">
        <ele>61.66</ele>
        <time>2014-11-16T15:22:38Z</time>
      </trkpt>
      <trkpt lat="49.21175" lon="-0.59901">
        <ele>61.18</ele>
        <time>2014-11-16T15:22:52Z</time>
      </trkpt>
      <trkpt lat="49.21152" lon="-0.59911">
        <ele>61.66</ele>
        <time>2014-11-16T15:23:09Z</time>
      </trkpt>
      <trkpt lat="49.21135" lon="-0.59924">
        <ele>61.66</ele>
        <time>2014-11-16T15:23:25Z</time>
      </trkpt>
      <trkpt lat="49.21119" lon="-0.59936">
        <ele>62.62</ele>
        <time>2014-11-16T15:23:45Z</time>
      </trkpt>
      <trkpt lat="49.21103" lon="-0.59946">
        <ele>62.62</ele>
        <time>2014-11-16T15:23:59Z</time>
      </trkpt>
      <trkpt lat="49.21087" lon="-0.59953">
        <ele>63.1</ele>
        <time>2014-11-16T15:24:09Z</time>
      </trkpt>
      <trkpt lat="49.21083" lon="-0.59956">
        <ele>63.1</ele>
        <time>2014-11-16T15:24:12Z</time>
      </trkpt>
      <trkpt lat="49.21058" lon="-0.59968">
        <ele>63.58</ele>
        <time>2014-11-16T15:24:28Z</time>
      </trkpt>
      <trkpt lat="49.2104" lon="-0.59972">
        <ele>64.07</ele>
        <time>2014-11-16T15:24:40Z</time>
      </trkpt>
      <trkpt lat="49.21017" lon="-0.59982">
        <ele>64.55</ele>
        <time>2014-11-16T15:24:58Z</time>
      </trkpt>
      <trkpt lat="49.20998" lon="-0.59992">
        <ele>64.55</ele>
        <time>2014-11-16T15:25:15Z</time>
      </trkpt>
      <trkpt lat="49.20978" lon="-0.6">
        <ele>65.03</ele>
        <time>2014-11-16T15:25:29Z</time>
      </trkpt>
      <trkpt lat="49.20966" lon="-0.60001">
        <ele>65.99</ele>
        <time>2014-11-16T15:25:39Z</time>
      </trkpt>
      <trkpt lat="49.20947" lon="-0.60008">
        <ele>66.47</ele>
        <time>2014-11-16T15:25:55Z</time>
      </trkpt>
      <trkpt lat="49.20936" lon="-0.60011">
        <ele>66.95</ele>
        <time>2014-11-16T15:26:04Z</time>
      </trkpt>
      <trkpt lat="49.20929" lon="-0.60014">
        <ele>66.95</ele>
        <time>2014-11-16T15:26:11Z</time>
      </trkpt>
      <trkpt lat="49.20908" lon="-0.60016">
        <ele>68.39</ele>
        <time>2014-11-16T15:26:29Z</time>
      </trkpt>
      <trkpt lat="49.20883" lon="-0.60011">
        <ele>69.35</ele>
        <time>2014-11-16T15:26:47Z</time>
      </trkpt>
      <trkpt lat="49.20862" lon="-0.60011">
        <ele>70.79</ele>
        <time>2014-11-16T15:27:03Z</time>
      </trkpt>
      <trkpt lat="49.20844" lon="-0.6001">
        <ele>72.72</ele>
        <time>2014-11-16T15:27:18Z</time>
      </trkpt>
      <trkpt lat="49.20822" lon="-0.60011">
        <ele>72.24</ele>
        <time>2014-11-16T15:27:34Z</time>
      </trkpt>
      <trkpt lat="49.20802" lon="-0.60015">
        <ele>73.68</ele>
        <time>2014-11-16T15:27:50Z</time>
      </trkpt>
      <trkpt lat="49.20783" lon="-0.60017">
        <ele>74.64</ele>
        <time>2014-11-16T15:28:05Z</time>
      </trkpt>
      <trkpt lat="49.20763" lon="-0.60024">
        <ele>75.6</ele>
        <time>2014-11-16T15:28:22Z</time>
      </trkpt>
      <trkpt lat="49.20761" lon="-0.60023">
        <ele>75.6</ele>
        <time>2014-11-16T15:28:23Z</time>
      </trkpt>
      <trkpt lat="49.20737" lon="-0.60022">
        <ele>76.56</ele>
        <time>2014-11-16T15:28:40Z</time>
      </trkpt>
      <trkpt lat="49.2073" lon="-0.6002">
        <ele>76.56</ele>
        <time>2014-11-16T15:28:47Z</time>
      </trkpt>
      <trkpt lat="49.20718" lon="-0.60011">
        <ele>77.04</ele>
        <time>2014-11-16T15:28:55Z</time>
      </trkpt>
      <trkpt lat="49.20716" lon="-0.60003">
        <ele>77.04</ele>
        <time>2014-11-16T15:28:59Z</time>
      </trkpt>
      <trkpt lat="49.2071" lon="-0.5997">
        <ele>77.04</ele>
        <time>2014-11-16T15:29:17Z</time>
      </trkpt>
      <trkpt lat="49.20703" lon="-0.5994">
        <ele>77.04</ele>
        <time>2014-11-16T15:29:33Z</time>
      </trkpt>
      <trkpt lat="49.20699" lon="-0.59913">
        <ele>77.04</ele>
        <time>2014-11-16T15:29:47Z</time>
      </trkpt>
      <trkpt lat="49.20697" lon="-0.599">
        <ele>77.04</ele>
        <time>2014-11-16T15:29:53Z</time>
      </trkpt>
      <trkpt lat="49.20696" lon="-0.5989">
        <ele>77.04</ele>
        <time>2014-11-16T15:29:58Z</time>
      </trkpt>
      <trkpt lat="49.20693" lon="-0.59861">
        <ele>77.04</ele>
        <time>2014-11-16T15:30:13Z</time>
      </trkpt>
      <trkpt lat="49.20685" lon="-0.59832">
        <ele>77.04</ele>
        <time>2014-11-16T15:30:29Z</time>
      </trkpt>
      <trkpt lat="49.2068" lon="-0.598">
        <ele>76.08</ele>
        <time>2014-11-16T15:30:44Z</time>
      </trkpt>
      <trkpt lat="49.20674" lon="-0.59768">
        <ele>74.64</ele>
        <time>2014-11-16T15:30:58Z</time>
      </trkpt>
      <trkpt lat="49.20671" lon="-0.59754">
        <ele>74.64</ele>
        <time>2014-11-16T15:31:05Z</time>
      </trkpt>
      <trkpt lat="49.2067" lon="-0.59744">
        <ele>74.64</ele>
        <time>2014-11-16T15:31:10Z</time>
      </trkpt>
      <trkpt lat="49.20677" lon="-0.59715">
        <ele>74.16</ele>
        <time>2014-11-16T15:31:26Z</time>
      </trkpt>
      <trkpt lat="49.20688" lon="-0.597">
        <ele>74.16</ele>
        <time>2014-11-16T15:31:39Z</time>
      </trkpt>
      <trkpt lat="49.20683" lon="-0.59665">
        <ele>72.72</ele>
        <time>2014-11-16T15:31:57Z</time>
      </trkpt>
      <trkpt lat="49.20682" lon="-0.59643">
        <ele>72.24</ele>
        <time>2014-11-16T15:32:08Z</time>
      </trkpt>
      <trkpt lat="49.20689" lon="-0.59625">
        <ele>71.76</ele>
        <time>2014-11-16T15:32:18Z</time>
      </trkpt>
      <trkpt lat="49.20695" lon="-0.59619">
        <ele>71.76</ele>
        <time>2014-11-16T15:32:22Z</time>
      </trkpt>
      <trkpt lat="49.207" lon="-0.59613">
        <ele>71.27</ele>
        <time>2014-11-16T15:32:27Z</time>
      </trkpt>
      <trkpt lat="49.20701" lon="-0.59607">
        <ele>71.27</ele>
        <time>2014-11-16T15:32:31Z</time>
      </trkpt>
      <trkpt lat="49.20702" lon="-0.59582">
        <ele>70.79</ele>
        <time>2014-11-16T15:32:44Z</time>
      </trkpt>
      <trkpt lat="49.20698" lon="-0.59549">
        <ele>70.31</ele>
        <time>2014-11-16T15:33:03Z</time>
      </trkpt>
      <trkpt lat="49.20693" lon="-0.59529">
        <ele>69.83</ele>
        <time>2014-11-16T15:33:18Z</time>
      </trkpt>
      <trkpt lat="49.20688" lon="-0.59526">
        <ele>68.87</ele>
        <time>2014-11-16T15:33:23Z</time>
      </trkpt>
      <trkpt lat="49.20685" lon="-0.59523">
        <ele>68.87</ele>
        <time>2014-11-16T15:33:27Z</time>
      </trkpt>
      <trkpt lat="49.20679" lon="-0.59518">
        <ele>72.24</ele>
        <time>2014-11-16T15:33:40Z</time>
      </trkpt>
      <trkpt lat="49.20679" lon="-0.59518">
        <ele>69.35</ele>
        <time>2014-11-16T15:33:41Z</time>
      </trkpt>
      <trkpt lat="49.20679" lon="-0.59517">
        <ele>68.87</ele>
        <time>2014-11-16T15:34:05Z</time>
      </trkpt>
      <trkpt lat="49.20678" lon="-0.59517">
        <ele>69.35</ele>
        <time>2014-11-16T15:34:29Z</time>
      </trkpt>
      <trkpt lat="49.20678" lon="-0.59517">
        <ele>69.35</ele>
        <time>2014-11-16T15:34:50Z</time>
      </trkpt>
      <trkpt lat="49.20678" lon="-0.59516">
        <ele>69.83</ele>
        <time>2014-11-16T15:35:15Z</time>
      </trkpt>
      <trkpt lat="49.20678" lon="-0.59516">
        <ele>69.35</ele>
        <time>2014-11-16T15:35:36Z</time>
      </trkpt>
      <trkpt lat="49.20677" lon="-0.59516">
        <ele>68.87</ele>
        <time>2014-11-16T15:35:50Z</time>
      </trkpt>
      <trkpt lat="49.20677" lon="-0.59517">
        <ele>68.87</ele>
        <time>2014-11-16T15:35:52Z</time>
      </trkpt>
    </trkseg>
  </trk>
</gpx>